GFSWCAN_sfc_rhum_000.txt.gz
RH
93 94 94 92 92 92 92 91 92 91 91 92 94 95 95 93 92 83 93 93 75 94 88 83 74 76 80 82 86 82 79 83 90 80 85 91 95 88 84 77 90 92 93 98 97 92 60 54 59 65 65 75 81 82
94 95 92 92 93 92 92 91 94 94 95 98 99 99 99 95 91 82 80 93 93 84 82 82 80 81 78 61 84 85 70 79 85 89 94 98 98 96 92 83 80 76 69 79 70 72 56 56 64 62 67 64 81 83
93 92 93 93 93 93 93 92 95 99 98 98 97 95 99 97 91 83 94 96 83 94 84 80 82 74 70 74 67 71 86 78 82 83 98 98 82 98 95 96 88 78 70 84 75 57 64 63 60 66 72 72 79 84
93 94 94 93 93 94 94 98 98 99 98 95 95 93 94 92 92 90 96 98 80 90 97 84 76 78 71 74 72 68 81 88 91 92 99 100 87 88 94 85 89 79 74 76 82 70 72 66 74 70 77 84 86 87
95 95 95 95 95 96 99 98 99 97 96 95 94 93 92 93 88 89 96 98 96 67 91 96 80 74 80 80 82 79 74 83 92 95 96 91 97 97 98 98 97 79 72 84 80 56 59 58 55 79 84 86 89 85
97 97 97 96 98 99 99 98 98 97 96 96 95 94 91 92 87 63 68 87 98 91 91 91 90 87 88 86 88 89 91 92 92 88 95 95 84 91 99 98 75 70 71 62 60 66 67 66 81 82 84 89 88 75
96 96 96 96 95 99 99 98 97 98 96 96 95 93 91 88 91 77 65 90 98 92 94 98 97 89 90 94 98 97 96 98 93 98 99 99 100 94 98 98 58 66 68 71 76 83 80 86 81 88 85 76 54 45
96 96 96 96 95 95 99 99 97 97 97 95 94 94 93 94 95 95 99 98 98 87 92 95 98 94 92 100 100 98 100 98 98 99 99 99 99 99 100 89 83 76 77 78 76 81 80 85 69 53 50 48 53 59
96 96 96 96 96 94 97 99 97 99 96 95 89 90 90 97 100 99 97 98 96 87 98 99 90 86 95 99 100 99 99 100 97 100 100 98 100 99 96 93 89 87 87 84 88 87 76 59 50 54 57 70 86 93
96 96 96 96 96 96 97 99 97 96 91 91 91 91 100 100 94 92 89 94 96 98 98 100 98 99 96 100 100 99 100 100 98 98 99 100 100 91 90 87 89 90 88 88 85 74 70 83 85 85 87 83 89 95
94 95 96 97 98 98 98 97 91 88 89 98 100 100 98 91 94 97 100 97 95 98 99 99 100 100 95 99 100 100 100 100 99 94 100 99 99 94 71 79 83 84 82 80 77 79 80 84 91 95 97 86 90 92
91 91 91 92 93 95 94 91 89 97 100 95 97 94 92 94 99 95 100 100 95 93 100 100 100 99 100 98 99 100 99 100 97 98 100 99 90 69 77 85 86 84 80 82 85 92 92 94 94 96 95 91 89 84
90 90 90 90 90 90 88 90 92 91 88 93 92 93 90 98 98 93 98 99 100 100 100 100 100 100 98 98 100 100 100 99 99 100 99 99 79 87 89 78 70 74 78 80 82 82 79 68 75 86 85 92 92 88
89 88 88 91 92 90 89 87 84 84 89 96 100 99 100 98 99 99 99 99 100 100 100 100 100 100 100 100 100 100 100 100 99 100 98 100 99 95 64 69 75 82 92 92 74 78 85 85 87 93 95 95 95 92
91 89 85 91 92 89 87 86 83 85 91 92 92 98 98 99 99 100 100 100 100 99 100 100 100 99 100 99 99 98 98 98 97 98 99 99 98 90 65 71 83 88 92 84 75 84 86 88 90 90 92 95 99 99
86 88 93 94 92 86 87 84 89 90 94 91 94 99 99 99 100 100 100 100 100 100 100 99 99 99 99 99 98 98 97 97 98 100 100 99 89 82 87 73 76 88 90 89 85 89 92 93 93 92 95 96 96 97
85 97 90 90 90 82 84 87 93 91 91 84 99 100 99 99 100 100 100 99 99 100 99 99 98 96 97 98 98 99 98 99 100 99 99 93 90 75 88 91 89 83 82 86 94 82 94 96 99 96 92 89 92 94
100 97 88 89 90 84 90 92 92 87 95 99 99 100 99 100 100 100 100 100 98 95 98 98 94 100 98 97 99 100 99 100 99 98 98 90 80 79 75 76 74 75 78 92 93 91 94 94 96 98 97 96 98 97
94 95 90 88 88 92 93 93 91 98 98 99 99 99 99 99 99 99 100 100 99 99 96 97 95 98 98 98 98 98 100 99 99 99 96 86 87 88 85 81 83 86 91 93 96 98 98 97 98 96 95 92 93 86
89 92 90 87 85 94 91 96 91 90 84 93 98 98 98 98 98 98 99 100 99 97 93 95 95 95 96 96 97 98 98 97 98 97 97 97 93 91 93 93 97 97 98 92 88 85 86 86 84 81 84 84 88 90
88 95 90 89 95 93 97 99 98 97 97 98 99 97 98 98 97 97 98 99 96 96 95 98 99 100 98 98 99 99 99 96 97 96 96 98 98 95 95 94 94 95 90 88 88 87 90 92 90 90 94 94 93 90
99 89 97 89 91 89 95 99 98 98 92 99 98 97 98 98 98 97 98 96 96 96 98 100 99 98 98 98 97 97 95 95 96 94 92 95 98 96 94 92 91 93 91 95 95 98 97 93 93 94 95 94 91 89
89 96 97 86 87 92 95 96 94 98 82 97 99 99 98 98 98 97 98 96 98 99 98 98 96 95 95 94 94 95 92 85 91 95 97 96 92 93 93 93 92 95 96 92 94 96 96 95 93 95 93 93 93 92
85 95 87 90 86 97 94 92 92 97 97 100 100 98 98 99 98 98 98 94 98 98 96 96 92 94 95 94 92 87 87 84 90 93 93 92 93 92 91 91 93 94 95 92 95 99 97 98 97 95 95 95 93 94
86 93 89 95 91 99 100 96 92 89 92 99 98 100 98 99 98 97 97 98 98 98 98 98 97 95 95 96 94 91 89 89 91 91 92 85 93 90 91 92 97 95 94 98 98 98 97 96 95 96 94 96 96 94
87 91 94 92 93 96 100 99 100 93 97 98 98 98 98 98 100 98 98 98 97 98 98 98 97 95 91 89 90 90 84 86 86 94 88 84 88 97 100 100 99 96 96 100 100 100 99 97 98 99 97 95 97 98
96 96 96 91 93 98 98 98 96 98 98 96 97 97 97 97 97 97 97 96 96 97 96 96 92 90 89 80 79 89 95 96 95 91 90 87 88 90 98 100 100 95 97 99 100 100 100 99 98 97 97 96 100 100
97 97 100 95 98 98 98 98 99 98 98 98 98 97 97 96 96 96 96 96 96 95 94 94 92 86 88 90 93 95 97 96 95 95 94 96 98 100 100 100 100 100 100 100 100 100 100 99 98 97 98 100 100 100
98 98 98 98 97 97 97 98 98 98 98 98 97 96 95 92 97 97 95 96 96 95 95 96 97 96 96 95 97 98 97 97 92 99 100 100 100 98 100 100 100 100 100 100 100 98 98 98 100 100 100 100 100 100
94 98 98 99 99 99 97 99 98 98 99 98 96 93 91 97 97 96 97 96 95 97 98 98 98 98 100 99 100 100 100 100 99 98 100 100 100 99 100 100 100 100 100 100 100 98 100 100 100 99 98 99 100 100
99 98 98 98 99 96 99 98 98 99 98 98 97 96 97 98 98 97 97 98 97 97 98 100 100 100 100 100 100 100 100 100 100 100 100 100 100 100 100 100 100 100 100 100 100 100 100 100 100 100 100 100 100 100
97 99 100 98 97 96 97 99 100 100 98 98 98 98 99 98 100 98 99 98 95 99 100 100 100 100 100 100 100 100 100 100 100 100 100 100 100 100 100 100 100 100 100 100 100 100 100 100 100 100 100 100 100 100
99 100 100 100 100 100 99 96 98 100 96 97 99 99 100 98 99 98 98 99 96 97 99 100 100 100 100 100 99 100 100 100 100 100 100 100 99 100 100 100 100 100 100 100 100 100 100 100 100 100 100 100 100 100

GFSWCAN_sfc_rhum_003.txt.gz
RH
95 94 94 92 92 92 91 92 92 92 94 95 95 93 91 86 88 83 93 93 75 88 86 80 69 74 76 78 84 80 76 82 87 90 93 82 92 78 70 64 85 74 84 86 85 77 66 45 49 64 58 60 58 66
94 94 93 93 92 91 91 92 92 95 98 99 98 98 92 86 88 87 87 94 84 82 82 81 77 75 72 61 78 83 70 75 78 87 90 95 100 98 86 79 71 72 69 73 64 67 53 48 60 55 56 55 55 65
92 93 94 93 92 93 94 97 99 99 98 94 97 98 93 88 88 82 91 95 89 95 85 76 78 71 72 75 68 70 78 74 74 75 94 97 95 94 96 87 81 69 61 73 73 51 55 55 51 52 50 55 55 60
94 95 94 94 94 97 99 99 98 97 94 94 94 95 92 89 90 85 84 95 88 91 100 89 79 79 75 77 69 70 78 83 85 79 98 100 97 80 91 79 87 71 67 70 71 62 59 52 56 55 55 63 67 66
95 95 96 97 99 99 98 98 97 96 95 94 94 89 92 90 88 90 97 98 93 71 96 97 81 76 80 78 76 73 70 78 84 93 100 97 91 95 95 92 88 70 68 79 78 51 53 51 43 50 61 61 64 73
96 97 99 98 98 98 98 98 97 96 96 95 92 92 91 90 85 85 82 90 94 88 90 97 87 86 84 83 85 89 85 87 85 81 96 84 82 84 100 91 64 61 62 56 51 53 55 55 53 57 63 67 75 77
96 96 99 99 98 98 97 99 98 96 96 94 91 89 90 89 89 73 66 87 94 89 94 98 98 87 90 92 96 95 94 94 88 97 99 97 98 82 99 89 59 67 61 62 64 68 71 68 67 76 72 53 47 43
97 96 96 98 98 98 98 98 98 97 94 94 94 93 93 94 94 94 98 95 96 81 88 95 97 97 91 100 100 96 100 95 97 97 97 99 98 97 100 85 79 74 72 75 79 73 73 63 49 47 45 49 60 70
97 97 97 96 98 98 98 98 98 95 94 91 88 92 90 97 99 98 96 96 92 82 95 96 91 91 93 100 99 98 96 100 94 100 100 95 100 98 93 84 80 81 85 80 66 55 53 56 54 60 65 78 93 97
97 96 97 98 98 99 99 98 94 93 92 89 89 89 100 100 94 90 85 90 95 98 98 100 94 100 93 100 100 100 100 100 100 99 98 100 100 77 65 72 79 83 78 76 81 71 78 83 83 82 89 91 94 97
94 96 98 98 99 98 94 93 94 89 87 96 100 100 99 91 88 95 99 98 96 98 98 100 100 100 95 100 100 100 100 100 99 93 100 100 99 73 74 84 80 79 81 81 79 82 83 92 96 97 99 98 97 96
93 92 93 93 94 95 96 94 90 96 99 94 97 94 90 91 94 94 100 100 96 96 100 100 100 98 100 94 99 100 100 100 99 97 100 99 83 61 80 84 86 85 86 90 89 94 92 91 91 97 98 98 99 88
94 94 95 94 92 88 86 87 90 88 87 90 90 93 89 98 97 88 99 100 100 100 100 100 100 100 99 97 100 100 100 100 98 100 99 94 69 96 85 77 82 82 83 80 81 82 74 66 76 89 88 94 94 89
87 87 91 94 93 90 88 85 83 82 87 95 98 99 97 100 100 100 100 100 100 100 100 100 100 100 100 100 100 100 100 99 100 99 96 97 99 93 73 72 86 87 92 81 64 75 85 85 87 90 91 92 94 93
88 86 84 92 92 89 85 85 83 83 90 92 92 99 99 100 99 100 100 100 100 100 100 100 100 98 100 99 99 99 97 96 94 94 99 99 97 67 59 65 68 80 88 80 71 82 88 88 91 89 92 94 95 98
85 82 86 93 92 86 83 81 87 86 92 93 98 99 99 99 100 100 100 100 100 100 100 100 99 99 98 97 97 96 94 94 94 99 100 99 99 98 85 71 76 83 87 85 82 86 91 92 94 95 92 93 95 95
83 94 88 91 89 82 82 85 90 86 91 94 99 100 100 100 100 100 100 100 99 99 100 98 98 97 96 97 98 95 94 94 100 100 98 93 90 82 83 86 89 78 79 82 85 85 89 93 97 95 97 95 96 95
99 96 89 88 86 83 92 90 89 86 98 99 98 100 100 100 100 100 100 100 98 94 94 98 88 98 98 97 98 95 97 99 99 96 92 86 78 75 72 75 75 80 87 92 95 94 96 96 94 91 86 78 79 79
96 92 87 86 84 90 93 95 88 97 99 99 99 98 99 99 97 98 100 100 98 94 94 93 94 96 96 93 99 99 98 98 97 94 88 90 89 87 86 86 89 94 94 90 90 90 88 84 82 76 74 76 82 81
85 86 87 84 81 92 92 97 89 88 90 94 97 97 97 97 98 98 99 100 98 94 91 94 93 89 92 92 92 94 94 94 93 93 94 95 91 90 92 94 95 89 84 81 80 79 76 75 72 75 80 79 88 91
88 93 85 88 94 94 92 97 98 98 94 95 98 95 96 95 95 96 96 96 95 92 86 96 100 100 94 97 95 94 96 89 89 91 93 96 91 86 85 86 82 80 82 85 86 82 86 84 80 79 89 91 91 90
98 85 94 87 92 92 96 98 98 98 90 98 98 94 96 95 95 96 96 96 94 96 98 98 97 98 97 96 96 93 92 90 88 90 91 91 91 84 81 81 81 90 88 90 87 92 89 81 83 85 91 92 88 86
92 87 90 87 86 88 95 96 94 97 88 96 98 98 98 97 96 93 96 95 97 96 97 94 93 96 94 95 95 93 90 92 91 90 93 89 86 91 84 82 83 88 86 80 80 85 89 91 86 92 90 90 91 91
82 92 93 94 93 99 89 90 87 92 88 95 99 100 97 99 97 98 98 95 97 96 95 94 92 93 93 94 90 89 91 89 87 91 90 84 86 85 82 82 84 84 83 80 84 90 89 93 95 90 92 94 94 94
83 95 91 93 93 98 97 94 90 86 92 94 98 98 99 96 98 100 98 96 96 96 96 97 95 94 95 95 93 91 92 82 84 86 87 78 83 76 75 72 85 83 83 93 95 97 95 94 94 94 93 95 96 94
94 92 90 91 92 94 100 100 99 92 93 99 100 96 97 97 97 97 93 97 95 97 97 97 96 94 92 90 89 84 84 82 77 88 81 73 76 85 85 86 85 83 86 97 98 99 97 96 96 96 95 92 96 96
98 94 96 96 91 95 98 98 94 96 98 98 97 97 97 96 96 94 94 93 95 96 94 95 95 93 91 89 87 89 89 88 87 82 80 77 77 79 87 93 94 86 92 96 100 100 100 100 98 96 96 92 95 97
95 87 99 96 99 98 99 98 98 98 98 96 96 97 97 96 94 95 94 94 94 93 93 94 92 90 90 90 92 91 92 91 93 90 89 89 90 94 95 94 93 100 96 97 99 100 99 100 97 96 97 99 98 96
97 98 96 99 98 97 98 97 98 98 98 98 97 98 97 92 95 95 92 92 94 93 95 95 95 95 94 92 95 96 94 92 84 92 96 95 96 91 93 97 96 95 97 99 99 97 97 96 96 96 93 95 94 95
94 98 97 100 99 98 97 99 96 98 98 97 95 90 89 94 95 94 94 94 94 96 96 96 96 96 97 96 100 97 100 100 97 94 97 100 97 95 100 100 100 99 100 100 96 93 100 98 96 92 94 94 95 95
99 98 98 98 97 98 98 98 98 98 98 98 97 96 96 97 97 95 95 96 97 97 96 97 100 100 99 100 100 100 98 97 100 100 100 100 100 100 100 100 100 100 100 100 98 99 100 100 100 98 96 96 97 97
100 100 100 98 97 98 96 100 100 99 98 97 98 98 97 97 99 96 97 96 92 92 100 100 98 100 100 100 100 100 99 100 100 100 100 100 100 100 100 100 100 100 100 100 100 99 100 100 99 99 99 98 98 98
99 100 100 99 99 97 97 95 98 100 98 97 99 99 98 97 98 97 96 97 93 93 94 96 98 100 100 100 98 98 98 99 100 100 100 100 100 100 99 100 100 100 100 100 100 100 100 100 97 97 98 100 99 97

GFSWCAN_sfc_rhum_009.txt.gz
RH
80 82 84 84 86 86 88 91 93 97 94 89 94 92 91 91 92 90 54 58 32 29 37 29 22 29 27 31 61 52 53 57 64 78 87 59 80 52 45 35 51 53 66 85 69 95 79 21 28 41 39 29 26 28
86 89 86 86 91 90 90 94 95 96 96 95 93 92 92 93 95 92 61 52 43 31 55 48 50 48 31 27 32 51 34 46 47 54 74 80 96 96 58 62 38 50 42 51 40 42 30 24 24 23 28 32 30 31
90 90 92 91 91 96 96 96 96 97 95 94 94 93 93 95 94 90 56 54 42 60 54 50 51 49 44 50 53 40 44 37 44 49 75 87 100 74 96 60 47 37 34 46 44 23 23 23 22 23 25 29 28 28
93 95 98 97 97 98 97 97 96 95 95 96 96 95 95 93 93 90 53 54 38 59 97 67 47 54 50 47 47 48 44 51 49 45 84 97 96 47 77 54 54 39 37 35 37 27 22 23 24 28 29 31 33 33
98 98 98 98 98 98 98 98 98 98 96 95 95 95 93 92 85 69 56 58 59 44 90 76 55 54 46 47 46 46 50 49 50 76 96 87 62 68 73 64 56 34 29 53 52 31 39 32 33 38 41 44 46 47
98 98 98 98 98 98 98 97 97 97 98 96 94 93 91 86 73 52 75 58 57 73 74 86 59 60 50 44 44 44 44 43 40 59 86 51 51 56 94 60 36 37 40 43 42 41 43 41 41 42 44 42 41 42
98 98 98 97 96 97 98 99 98 98 98 97 92 89 86 81 55 63 49 73 82 58 80 88 82 63 58 52 58 55 54 54 42 57 83 68 59 50 95 62 48 47 46 49 47 50 49 46 48 43 47 51 62 62
98 98 98 98 94 92 93 96 96 92 90 89 87 85 84 87 94 70 87 90 90 59 64 88 93 89 60 86 88 61 78 59 66 69 78 82 69 77 75 56 50 49 48 52 46 46 46 44 45 52 58 68 86 91
98 98 98 95 93 90 91 92 92 92 91 89 89 91 66 74 75 73 95 87 78 77 74 92 98 97 62 78 81 83 65 97 68 97 87 73 93 88 65 60 56 58 59 56 48 46 48 56 61 69 74 80 85 81
97 97 95 95 93 90 91 91 91 90 89 89 53 60 82 86 92 85 82 83 77 73 69 100 74 98 65 98 100 91 94 98 97 92 69 98 85 58 59 58 56 54 49 52 66 65 63 68 73 78 81 80 70 65
93 93 92 91 86 85 89 91 89 86 83 69 88 98 82 82 67 74 82 77 66 90 82 86 91 92 77 92 99 97 99 97 100 88 90 97 94 68 62 63 65 60 55 55 56 60 64 69 75 82 73 72 84 81
91 90 90 89 87 86 82 85 84 72 77 82 83 73 67 66 83 96 100 95 88 92 98 96 95 84 94 70 87 93 99 97 97 74 98 88 84 76 82 84 74 64 60 62 61 63 62 62 64 75 70 70 87 88
92 93 92 89 87 86 83 84 85 86 82 62 72 95 71 96 100 100 100 99 98 100 99 99 100 98 88 80 99 92 100 99 76 98 82 81 80 88 88 74 64 55 53 52 49 45 47 57 78 91 85 100 99 79
89 90 92 92 91 88 86 85 81 67 70 90 100 100 100 100 100 100 100 100 100 100 100 100 100 100 100 100 100 100 100 96 100 100 96 90 96 97 87 66 56 58 78 55 55 67 86 96 100 100 100 100 100 98
85 85 86 91 89 88 87 86 82 66 80 94 92 100 100 100 100 100 100 100 100 98 100 98 98 85 100 100 100 100 100 100 95 97 98 98 97 95 76 63 63 64 92 69 68 85 100 98 100 94 94 92 92 92
74 72 73 90 86 81 80 82 85 88 92 96 99 100 100 100 100 100 100 100 98 100 98 93 100 100 100 100 100 100 99 92 100 100 99 97 98 95 64 63 68 63 59 69 70 80 94 97 95 89 81 82 94 89
68 67 86 89 82 76 75 73 86 89 97 100 100 100 100 100 100 100 100 100 97 100 100 100 100 100 100 100 100 100 100 100 100 99 98 97 94 78 62 72 82 73 71 73 79 84 87 88 82 71 62 53 56 63
63 64 85 84 69 64 65 62 75 74 95 99 99 100 100 100 100 100 100 96 97 97 98 99 97 100 100 100 100 100 100 100 99 98 98 97 76 67 63 70 69 77 84 84 81 79 78 72 56 53 50 48 48 50
68 72 84 84 66 65 74 77 67 88 100 100 100 100 100 100 92 95 99 91 80 77 80 78 95 83 97 91 100 100 100 99 98 90 84 73 69 70 71 76 79 80 77 72 69 63 56 54 54 51 52 50 61 58
77 75 81 77 65 70 87 85 62 74 88 92 93 92 86 86 97 100 100 90 70 68 88 89 96 96 96 95 94 94 92 88 85 87 87 79 76 78 79 77 75 72 63 59 59 62 53 53 49 51 62 60 71 73
63 64 72 64 68 67 80 70 68 70 69 77 86 82 81 94 98 100 100 78 91 81 87 87 93 99 92 91 88 88 90 81 85 86 81 80 75 75 82 82 70 64 67 70 70 66 67 62 57 58 75 79 78 76
62 75 75 70 75 86 77 74 66 62 63 69 71 67 86 99 99 97 80 88 86 94 96 94 92 90 85 89 88 87 87 82 85 90 83 83 84 82 82 78 75 76 70 70 67 77 72 60 67 70 77 81 71 70
70 66 78 92 94 96 90 65 88 79 87 85 78 75 86 90 86 70 87 82 88 78 86 80 81 81 82 88 88 92 93 85 83 87 91 89 88 92 79 67 68 75 70 61 57 64 72 71 69 79 75 75 77 78
66 91 99 96 90 98 92 86 65 68 76 84 85 84 87 88 77 80 86 79 78 74 79 76 71 75 78 84 81 84 89 87 88 92 92 87 87 84 69 65 66 68 67 63 66 73 72 79 74 74 77 78 77 79
83 93 95 87 91 88 89 89 85 77 84 81 84 84 86 85 86 79 81 79 83 86 88 86 78 78 85 88 88 88 91 86 87 85 85 77 76 65 62 60 65 64 67 78 80 80 79 78 78 78 76 78 77 76
86 96 86 87 87 87 87 88 87 86 81 85 90 84 89 83 79 83 75 89 86 90 92 93 92 86 80 78 81 79 81 69 65 73 64 59 62 72 70 69 67 76 70 78 82 82 78 76 78 76 77 72 74 79
85 88 80 72 78 80 87 87 84 81 81 83 84 82 84 81 84 82 78 80 83 88 83 85 82 80 78 77 76 77 74 71 72 65 60 59 61 65 74 80 78 74 72 74 79 80 82 81 79 78 78 78 77 80
80 87 84 85 83 80 84 83 86 88 88 76 79 83 84 89 90 84 82 81 84 82 83 82 78 77 79 80 82 82 78 74 76 70 68 68 67 71 72 74 73 72 77 76 80 81 80 81 81 81 81 81 81 78
85 93 86 92 86 84 84 82 85 82 76 80 89 88 85 78 86 88 82 82 84 87 88 86 87 86 85 79 80 79 78 78 72 64 64 74 76 78 73 75 75 75 77 79 70 73 74 80 81 82 80 83 81 80
92 95 85 87 83 80 92 94 95 94 80 85 80 73 73 83 87 84 86 87 87 91 91 89 89 88 87 82 82 81 83 82 82 82 81 81 83 79 78 78 79 80 80 81 80 76 72 76 76 78 80 79 80 82
88 91 88 83 84 89 90 95 93 94 92 89 89 90 86 88 87 82 83 86 86 87 88 87 84 81 80 81 81 79 81 83 80 76 81 82 79 79 79 80 81 82 82 81 81 81 81 82 81 80 79 78 78 80
91 96 89 81 85 89 91 88 91 89 91 90 89 87 88 88 86 85 86 89 85 85 89 80 81 84 80 79 80 80 90 80 76 78 77 81 81 79 79 78 80 80 80 81 81 80 80 81 83 81 81 79 78 78
87 86 80 81 80 77 85 89 81 83 83 83 87 85 87 88 87 88 81 84 87 86 84 83 82 81 80 78 80 80 71 69 74 81 83 86 92 90 90 82 80 79 79 82 82 80 79 79 81 79 77 78 78 78

GFSWCAN_sfc_rhum_012.txt.gz
RH
82 81 80 79 80 81 82 85 85 85 87 90 90 91 92 87 89 93 87 89 95 68 38 31 25 29 30 43 70 56 57 56 78 86 92 78 91 64 56 36 60 69 84 95 88 100 90 21 25 50 49 41 33 32
80 79 79 80 82 82 85 87 86 88 91 89 91 91 90 87 92 93 96 84 86 87 58 57 51 44 36 25 46 58 45 51 58 63 79 88 99 95 75 76 32 60 53 70 58 66 39 25 30 27 30 37 35 36
82 83 84 84 88 87 88 88 87 88 91 91 93 91 90 91 94 93 94 89 74 70 62 47 48 48 45 50 53 50 48 40 48 52 84 94 99 90 98 80 56 36 33 59 56 24 23 25 22 24 24 31 29 31
88 87 86 88 91 91 93 90 91 95 92 92 93 92 92 93 93 94 95 94 76 64 99 74 46 49 46 44 46 49 48 56 58 58 93 100 100 54 93 66 77 45 36 37 39 31 26 21 32 33 34 36 40 43
88 87 87 88 91 91 95 94 96 96 96 95 91 92 92 92 92 95 94 86 63 44 85 78 56 49 44 46 45 45 51 57 61 84 100 96 75 83 86 76 76 36 37 69 77 42 46 41 43 45 47 46 42 43
91 92 91 91 93 93 96 94 92 92 96 96 95 93 92 94 96 93 96 59 66 48 79 92 61 55 46 47 46 48 52 53 52 75 93 63 50 70 98 80 32 41 41 43 45 46 47 47 44 44 48 48 48 50
98 98 98 98 99 98 98 98 97 96 96 92 92 95 95 94 82 92 75 84 88 62 81 96 89 62 46 49 51 52 49 49 50 66 90 77 65 61 99 82 46 45 44 48 46 50 55 47 52 51 60 62 68 66
97 97 97 98 98 98 98 97 97 94 94 95 95 95 94 94 97 90 74 82 87 64 87 92 100 90 58 88 88 60 73 66 70 73 80 90 76 92 90 52 47 48 47 50 47 46 48 48 53 63 66 68 72 72
92 92 94 94 96 97 98 98 98 96 93 93 90 90 84 76 85 79 93 91 77 75 98 98 97 100 62 81 85 83 65 98 70 100 89 77 93 91 61 55 54 55 56 53 47 48 52 61 65 68 68 66 68 67
89 89 85 91 94 92 94 93 93 92 90 88 73 65 91 98 95 91 66 74 82 93 90 100 88 99 74 99 99 95 97 98 97 95 70 97 87 56 55 54 53 52 51 52 63 67 66 68 72 72 69 70 80 81
88 89 86 82 84 91 92 90 87 85 81 63 83 96 91 92 64 73 93 92 93 100 83 85 93 97 80 97 100 99 100 100 100 90 92 91 89 66 57 63 57 53 52 55 58 63 65 70 72 78 84 78 79 78
92 90 88 86 82 84 84 88 92 72 72 78 79 80 84 82 86 96 100 99 97 97 98 98 95 84 95 74 95 96 100 100 98 82 99 88 83 67 73 74 64 58 58 60 60 65 66 70 67 75 79 88 96 97
90 90 88 88 87 87 82 85 86 85 86 63 78 98 87 98 100 100 100 100 99 100 100 98 100 99 93 78 98 93 100 100 81 99 84 87 78 79 79 70 62 58 58 58 53 54 61 79 89 91 97 96 97 88
85 86 87 89 88 89 87 83 82 69 69 93 100 100 100 100 100 100 100 100 100 100 100 100 100 100 100 100 100 100 100 91 100 100 92 92 86 92 77 68 64 60 73 67 66 82 96 98 97 96 96 94 91 88
78 80 79 85 84 83 86 84 78 67 81 93 93 100 100 100 100 100 100 100 100 98 100 100 100 94 100 100 100 100 100 100 88 97 98 96 97 87 76 69 67 73 95 81 82 96 98 94 93 92 89 86 89 93
74 67 73 88 83 79 80 78 84 84 96 99 99 100 100 100 100 100 100 100 98 100 100 100 100 100 100 100 100 100 98 96 100 100 99 98 98 96 91 79 74 72 80 82 88 91 92 90 92 83 82 88 91 89
66 66 90 88 83 72 76 80 90 92 99 100 100 100 100 100 100 100 100 100 98 100 100 100 100 100 99 100 99 100 100 100 100 100 99 98 98 89 80 84 86 84 81 84 87 86 87 87 87 79 65 56 61 74
62 60 86 86 71 59 61 73 88 79 99 99 100 100 100 100 100 100 100 98 100 100 100 100 99 100 100 100 100 100 100 100 100 99 98 97 86 74 74 75 80 85 86 84 82 81 82 82 64 59 54 51 55 58
68 72 82 80 66 64 75 79 72 96 100 100 100 100 100 100 94 99 100 94 83 86 93 95 99 98 99 99 99 100 100 100 98 97 88 85 85 86 83 85 86 84 82 78 74 66 59 58 57 56 56 57 67 65
73 74 79 73 62 74 80 80 67 82 94 98 98 94 87 89 98 100 100 93 85 83 90 93 97 97 97 97 98 98 99 97 96 98 97 90 85 84 83 82 78 70 67 64 64 68 60 59 53 58 67 66 76 78
57 60 70 60 63 67 77 72 73 74 78 85 86 87 86 95 100 100 100 83 89 94 94 98 98 99 97 93 97 98 98 98 98 99 91 96 90 86 91 97 96 86 86 84 76 71 73 68 63 63 80 86 86 83
56 72 75 75 78 86 76 78 67 64 71 78 72 70 88 99 99 98 84 87 85 93 95 93 94 88 85 86 85 91 93 95 94 95 97 96 94 93 94 94 90 93 86 78 73 81 77 67 73 74 81 86 80 78
67 68 82 92 94 94 87 64 88 71 80 76 75 73 82 85 88 73 84 84 91 95 95 90 86 83 86 85 81 83 88 88 91 92 93 92 92 95 94 93 93 92 77 66 63 71 78 74 76 83 81 81 84 85
69 94 96 94 90 93 95 82 61 64 76 74 73 78 84 88 77 76 85 84 91 84 83 85 90 91 81 81 83 87 90 85 87 92 92 88 88 90 90 88 76 74 73 68 74 78 77 85 79 76 84 83 84 85
87 94 96 84 93 84 81 79 79 70 75 75 84 86 85 88 84 83 88 90 89 92 92 90 82 87 90 91 87 87 88 82 86 86 90 87 88 75 71 69 71 70 72 83 83 83 83 84 84 83 80 82 82 81
86 88 81 80 81 82 78 78 80 80 76 81 83 80 87 85 80 91 85 93 90 93 94 94 96 85 81 77 80 82 82 73 65 75 66 63 68 78 76 75 76 85 75 82 83 82 80 81 82 81 82 78 79 86
83 84 80 75 79 79 84 80 80 81 84 85 86 86 82 83 88 88 85 85 88 93 88 88 83 83 82 80 78 77 72 70 73 65 62 63 66 68 78 84 84 82 75 76 80 83 84 84 85 84 85 85 86 88
79 86 88 86 81 82 77 78 82 88 89 82 83 87 89 92 91 88 88 86 87 82 83 82 79 78 82 86 87 85 81 77 78 73 72 71 69 75 75 75 78 75 77 82 80 83 82 83 86 86 88 90 89 87
83 88 89 92 77 79 90 92 89 86 78 84 92 90 89 83 89 91 83 83 86 92 90 88 89 87 86 81 82 83 82 84 78 76 73 79 82 90 77 76 76 77 79 81 79 81 78 84 83 86 83 83 85 87
83 91 79 76 84 88 94 92 94 90 83 86 78 73 76 86 90 86 86 86 88 92 92 92 92 89 91 92 84 86 85 83 85 85 86 86 85 82 82 81 82 82 83 83 83 78 79 81 80 83 88 86 84 87
80 85 80 74 83 92 91 89 93 91 89 91 89 90 88 89 90 85 85 92 86 89 91 89 86 85 82 84 85 85 90 85 82 76 78 81 80 82 84 83 83 85 82 83 83 83 85 84 82 83 84 84 83 84
82 86 83 77 89 91 82 85 85 92 92 92 90 88 90 92 88 87 88 90 86 87 88 85 86 86 82 81 82 82 89 79 78 82 77 84 83 86 86 84 86 87 86 83 84 83 85 85 84 82 85 83 86 84
77 74 74 72 72 74 82 81 74 86 83 85 85 86 87 88 89 90 83 84 86 88 88 89 88 85 79 77 75 77 68 70 74 83 89 90 90 90 88 85 87 87 86 87 86 85 83 82 85 84 84 85 84 87

GFSWCAN_sfc_rhum_015.txt.gz
RH
80 78 79 80 82 81 81 82 90 91 88 86 83 83 88 90 96 97 93 92 99 99 88 67 43 55 56 76 87 76 88 78 95 90 92 91 96 77 75 68 74 79 93 98 98 99 86 36 35 43 63 52 45 44
81 81 81 82 81 80 79 81 81 82 84 81 86 88 89 86 93 92 96 88 90 99 95 80 66 51 47 54 73 78 73 72 85 90 97 98 98 97 82 82 56 80 77 86 76 84 62 38 38 45 41 42 44 46
84 84 83 82 81 83 83 82 84 84 84 85 89 88 90 91 92 90 92 93 97 99 94 92 76 71 60 65 61 74 76 63 72 85 97 100 94 95 95 92 73 55 48 78 58 43 40 34 34 38 48 54 59 59
83 83 83 84 85 85 85 88 90 89 88 90 90 89 88 91 90 89 95 94 99 99 100 88 58 67 59 61 64 66 69 77 82 94 99 100 100 84 95 77 85 69 49 54 58 46 56 61 61 61 57 58 51 53
89 89 88 88 90 90 91 90 91 89 89 91 90 90 91 90 91 95 96 96 98 99 100 95 70 61 56 61 64 66 73 78 93 91 100 96 96 90 97 90 86 57 58 75 84 61 69 71 61 56 57 58 56 65
88 88 89 92 92 89 91 90 90 92 92 92 92 92 92 95 97 98 100 94 92 97 99 99 84 68 60 62 65 71 72 82 88 96 99 90 73 86 96 94 62 60 63 63 70 64 62 64 69 68 73 74 72 74
87 84 84 88 89 91 90 93 91 96 92 92 92 94 95 97 97 99 98 98 97 99 96 98 97 82 69 72 88 79 70 88 90 94 98 91 84 93 99 91 63 62 60 63 62 61 69 66 80 72 75 76 79 80
93 91 91 91 90 91 89 92 96 95 96 96 94 96 96 98 98 96 95 96 97 94 92 99 100 96 76 97 98 93 96 95 94 96 96 97 95 98 93 70 62 60 58 60 59 61 69 73 76 76 73 76 82 84
98 97 93 92 91 92 91 94 94 96 97 96 96 98 98 99 99 96 89 93 93 89 98 100 100 100 84 98 99 95 96 100 96 100 98 91 99 98 77 70 69 67 70 64 62 66 71 78 75 72 76 78 77 86
95 98 98 98 97 97 97 96 95 96 96 96 93 98 100 98 93 88 86 89 92 96 97 100 98 100 88 100 100 99 100 100 100 99 91 100 98 74 71 71 70 70 60 64 82 86 81 78 75 78 86 82 79 76
89 92 95 98 98 97 94 94 94 95 95 97 98 100 98 92 87 93 94 95 95 100 98 99 99 100 93 99 99 100 100 99 99 95 96 99 100 79 75 74 72 70 69 69 68 71 72 73 87 86 83 85 92 97
90 88 89 92 96 97 95 93 92 90 96 89 88 94 92 92 96 98 100 99 97 98 99 100 100 96 99 95 99 99 99 98 100 95 99 95 94 88 82 76 72 70 72 73 72 76 77 77 77 86 95 98 98 95
85 87 89 89 89 89 91 90 94 90 87 85 87 95 88 99 100 97 99 99 99 100 100 100 100 100 98 96 100 100 100 99 97 100 97 98 89 85 79 73 71 69 72 68 75 81 85 90 94 97 98 97 94 92
79 78 83 88 90 86 86 89 89 84 88 98 99 98 100 99 98 99 99 100 100 100 100 100 100 100 100 100 100 97 100 97 100 99 96 99 95 92 86 74 72 70 78 85 90 96 98 97 98 97 96 93 93 95
78 81 77 83 85 85 85 84 79 82 93 98 94 99 99 100 100 100 100 100 100 100 100 100 100 99 100 100 100 99 99 94 94 98 100 98 95 87 78 73 80 84 90 94 96 96 98 97 97 95 94 95 92 93
74 74 80 89 83 81 81 84 88 91 98 98 98 98 100 100 99 99 100 100 99 100 100 100 100 99 99 100 98 99 97 99 100 100 100 98 96 94 84 83 86 87 92 96 94 95 94 94 92 93 94 91 91 90
73 86 87 87 83 71 79 83 92 97 100 99 99 100 100 99 100 100 100 100 99 100 100 100 98 99 99 99 99 99 99 100 100 100 99 99 98 95 91 92 93 93 96 95 93 92 92 91 90 90 78 83 81 80
86 78 84 84 78 74 83 85 93 96 98 99 99 99 100 100 100 100 100 100 100 100 99 99 99 99 99 98 99 100 99 100 99 99 99 98 96 92 86 89 90 92 92 92 91 90 92 91 75 74 70 72 77 76
80 81 78 78 74 87 90 90 87 98 99 100 100 100 100 100 99 99 100 99 98 98 98 98 96 97 98 98 98 99 100 100 99 99 98 98 96 95 94 97 98 98 96 90 83 73 69 70 75 75 80 82 90 91
73 75 80 70 75 90 86 91 86 95 99 99 100 98 99 99 100 100 90 87 86 92 93 96 97 98 98 98 98 99 99 100 99 98 98 99 99 98 99 99 93 82 86 86 80 75 70 72 74 80 90 90 95 97
78 77 81 85 91 86 94 96 94 97 98 99 98 97 98 99 91 91 94 86 87 98 96 98 98 98 98 97 97 98 96 96 98 100 98 98 98 96 98 98 97 96 96 96 95 94 88 89 85 87 98 98 96 97
80 79 97 91 94 89 91 88 94 95 93 94 95 95 98 97 98 95 91 90 96 98 98 98 96 91 89 92 94 95 97 95 96 95 96 95 94 93 94 95 92 95 95 96 95 94 90 85 89 94 97 96 96 96
81 89 94 90 86 87 93 94 89 83 91 90 92 89 95 95 97 94 97 95 98 97 98 97 94 90 90 88 88 92 92 92 94 94 95 95 94 96 94 94 95 95 95 92 84 89 94 90 92 96 97 95 97 98
84 95 97 97 90 91 92 88 91 92 89 78 79 84 90 97 95 93 97 95 96 90 93 96 96 91 85 86 92 94 94 87 91 94 94 92 93 94 92 93 93 92 93 86 89 94 95 96 94 96 96 97 99 98
82 91 88 90 91 88 88 77 85 84 94 90 91 93 90 97 95 96 97 97 96 96 96 96 90 94 96 97 96 95 95 88 90 90 94 95 95 91 86 84 87 87 89 95 97 97 98 98 98 97 96 100 97 98
88 90 82 82 84 85 82 83 89 91 91 94 97 96 97 96 94 98 96 97 97 98 97 96 97 94 93 91 92 92 93 92 78 87 82 82 89 95 96 97 98 98 94 99 99 100 99 99 100 99 100 96 98 98
88 88 93 90 94 94 94 92 92 93 97 98 98 93 94 97 98 96 98 97 98 98 96 96 95 94 95 95 92 89 87 85 86 81 83 82 83 85 92 98 100 96 97 97 99 100 100 100 100 100 100 98 99 99
96 96 97 93 92 90 93 92 96 98 98 93 96 97 96 97 98 97 96 98 98 97 96 95 92 93 94 94 92 94 93 95 93 92 90 93 94 96 95 98 96 92 95 98 97 98 100 100 100 100 100 100 100 100
96 95 95 95 82 93 97 98 98 98 92 96 98 98 97 96 97 97 97 96 94 93 95 96 98 97 94 92 92 91 90 92 89 92 94 100 99 98 97 98 97 98 99 99 99 92 92 96 98 99 100 99 96 99
82 94 91 90 95 97 97 98 98 97 96 95 94 87 90 98 96 91 92 93 95 97 96 95 94 93 96 96 98 98 96 96 95 98 100 100 100 98 97 98 98 99 100 100 100 98 98 97 100 99 99 97 99 100
82 91 89 92 97 98 93 98 99 97 96 98 95 96 96 98 98 92 94 95 92 93 93 95 94 94 95 96 98 100 100 98 97 95 96 100 100 100 97 97 99 100 99 99 99 100 100 100 99 100 100 100 99 100
80 80 93 96 99 96 87 95 95 97 98 98 99 99 100 98 100 99 95 93 93 94 96 95 97 99 97 97 98 99 96 98 98 97 96 100 100 100 100 100 100 99 97 97 99 100 99 99 100 99 100 100 97 99
90 89 90 91 92 93 94 94 96 97 96 97 98 98 98 98 99 98 98 97 98 100 99 98 98 98 96 94 92 96 93 96 94 97 93 95 100 100 100 100 100 100 100 100 100 100 100 97 97 99 100 100 100 100

GFSWCAN_sfc_rhum_018.txt.gz
RH
79 83 82 84 83 82 82 82 81 80 82 81 81 80 83 86 84 91 92 92 97 98 93 82 50 52 55 69 84 83 86 88 96 91 90 92 87 82 82 72 74 71 88 96 97 93 68 50 38 42 51 60 50 50
77 77 77 78 80 82 83 82 80 80 85 85 83 84 87 84 84 84 98 93 90 98 95 90 88 75 44 61 83 88 73 78 86 89 97 96 93 94 80 89 69 65 71 81 74 77 59 44 46 54 51 49 51 63
80 80 81 83 84 83 82 84 85 86 87 84 85 86 86 83 84 86 96 97 97 97 92 98 91 69 63 61 54 82 85 72 86 77 97 99 77 94 89 88 74 64 64 80 68 53 60 51 63 61 66 70 67 66
83 85 85 85 84 83 83 82 90 92 88 87 85 88 86 86 90 84 97 97 98 99 100 92 78 76 67 58 67 68 65 82 85 90 99 99 92 81 92 73 82 68 55 61 63 77 69 73 72 65 62 65 66 63
86 86 85 85 86 86 86 85 83 86 87 87 87 87 85 90 89 93 98 97 96 99 100 98 84 73 75 70 73 75 74 76 82 86 98 92 96 91 97 88 88 61 60 74 75 58 72 76 70 66 66 71 69 73
87 87 88 89 89 90 90 90 89 88 89 90 90 90 90 91 91 96 98 90 92 94 100 99 94 85 79 76 74 75 87 91 91 93 100 93 83 84 89 92 66 69 70 63 76 71 75 80 76 72 80 80 78 80
92 92 91 91 93 93 93 93 93 94 92 92 92 90 89 90 95 94 92 96 89 92 99 99 99 92 88 86 94 90 92 97 95 97 99 91 88 90 97 90 72 73 72 68 68 69 79 79 90 82 82 82 81 82
89 90 92 92 91 92 92 92 93 95 94 93 93 93 93 92 97 92 97 99 96 95 98 99 100 99 87 99 99 98 98 97 98 98 99 98 98 98 88 78 73 68 71 75 77 74 79 79 79 83 80 78 82 87
84 83 86 90 90 90 90 94 95 93 93 94 95 96 98 99 100 96 99 100 98 98 99 100 100 100 93 100 100 97 98 100 96 99 100 91 100 97 84 77 72 68 73 84 80 79 79 82 82 82 83 87 90 87
86 90 90 90 91 92 92 95 97 95 91 94 95 99 100 98 98 92 96 99 94 96 98 100 99 100 94 100 100 100 100 100 96 99 96 99 99 83 82 80 78 74 75 77 91 93 86 83 78 81 83 78 77 81
94 92 90 90 92 92 92 96 95 95 96 98 100 100 100 98 98 100 98 95 95 99 99 100 99 99 96 98 100 100 100 99 94 94 90 99 99 90 86 86 78 73 73 75 73 75 76 84 86 87 85 89 94 94
98 97 96 95 94 94 94 95 96 95 97 96 97 99 99 98 97 96 100 98 96 100 99 100 100 99 99 94 99 100 100 98 98 97 94 97 98 92 89 88 87 82 78 77 75 84 83 78 78 88 96 96 96 95
96 97 96 95 95 95 95 95 93 97 90 95 94 95 89 98 95 99 98 99 99 100 100 100 100 100 98 96 100 100 98 98 96 96 95 98 92 87 85 83 81 77 79 80 82 83 86 91 93 94 97 97 94 91
89 91 94 95 96 96 96 94 90 89 88 97 95 98 99 96 99 99 99 100 100 100 100 100 100 100 100 100 100 100 100 97 99 99 96 99 94 91 81 78 81 87 92 93 92 95 98 97 98 96 95 93 93 94
89 86 85 92 90 86 85 84 84 89 93 98 94 99 99 99 99 100 100 100 100 100 100 100 100 98 100 100 100 99 99 99 98 98 99 99 97 85 81 80 87 90 94 95 94 97 98 96 96 95 96 94 92 89
83 77 78 88 86 86 85 85 90 94 97 96 98 98 99 99 99 99 100 100 99 100 100 99 99 98 99 99 98 99 97 99 99 100 100 98 90 85 84 86 87 88 92 95 94 94 95 96 94 91 88 91 93 89
79 86 82 84 80 68 79 86 94 98 99 97 99 100 100 99 99 100 100 99 99 100 100 98 96 100 99 98 99 99 99 99 100 100 100 97 98 98 98 98 98 98 95 95 94 93 91 91 92 86 78 75 77 85
91 91 84 82 78 79 84 86 95 97 98 99 99 99 99 99 99 99 99 99 99 99 99 99 99 97 97 97 98 99 99 100 100 99 99 98 97 98 97 97 99 97 94 93 92 90 85 87 74 78 80 75 78 82
81 81 81 82 80 85 87 91 88 98 99 100 99 99 100 100 98 97 97 97 96 95 98 98 95 96 97 97 98 98 99 100 99 99 99 99 98 98 98 99 98 98 97 93 85 82 77 74 77 80 82 81 91 94
77 79 83 84 77 88 88 93 89 97 99 100 100 98 98 99 99 89 84 85 84 90 92 95 96 97 97 97 98 98 97 99 99 98 98 98 98 98 98 95 95 95 92 94 93 92 91 92 89 84 84 83 94 99
81 86 86 85 92 86 94 97 99 99 99 97 98 98 98 90 82 86 90 84 82 96 95 97 98 97 97 96 96 96 95 96 98 99 98 95 96 94 94 95 95 94 93 94 94 94 94 93 86 87 94 96 98 100
91 84 95 87 88 85 87 90 95 97 92 96 95 96 97 97 99 96 87 87 95 97 97 97 95 90 88 91 92 93 95 94 96 94 95 94 94 94 94 95 93 95 95 96 94 96 95 81 89 93 95 96 96 98
82 86 91 84 85 84 88 93 87 87 90 92 93 90 96 98 98 94 97 94 96 95 97 89 87 86 88 88 86 90 92 88 92 94 95 94 94 95 94 94 95 95 95 95 93 93 94 88 93 94 94 95 98 98
80 91 95 95 90 99 89 85 91 90 90 88 90 84 92 98 95 93 97 94 95 90 91 95 84 85 82 86 91 92 93 86 90 94 94 90 91 93 91 93 93 94 92 88 89 94 94 97 95 94 98 100 100 100
81 90 84 88 90 83 86 80 89 89 96 97 94 96 90 95 95 98 97 97 95 96 95 94 90 92 95 96 95 94 93 87 92 92 95 92 94 92 92 89 92 92 91 94 98 98 99 100 100 100 100 100 100 100
86 97 87 81 94 91 92 86 94 92 95 93 97 95 97 95 95 98 95 98 97 98 97 97 98 94 92 90 92 92 94 88 81 91 91 89 92 96 98 98 96 94 95 99 100 100 100 100 100 100 100 100 99 100
94 98 95 96 97 96 93 95 95 95 100 100 99 96 96 98 99 96 96 97 97 98 96 96 95 94 94 94 93 94 93 90 88 88 86 84 84 86 93 97 98 95 99 99 100 100 100 100 100 100 100 100 100 100
100 97 98 92 93 96 99 100 100 98 100 98 96 100 96 99 99 96 96 96 96 96 95 95 94 92 92 90 91 93 96 97 94 92 89 90 89 90 95 98 97 97 100 100 100 100 100 100 99 100 100 100 100 100
97 97 91 92 94 99 98 98 98 99 96 100 98 98 99 94 96 97 95 95 94 94 95 96 96 96 95 93 92 90 88 90 92 98 100 100 100 98 96 98 98 100 100 100 100 98 98 99 98 100 100 100 98 100
89 97 94 100 98 94 98 99 100 98 95 98 94 87 89 97 96 95 93 94 94 96 96 96 96 94 98 100 100 97 98 96 92 96 100 100 100 99 100 100 100 100 100 100 100 98 100 100 100 100 100 100 100 100
90 93 95 98 98 98 98 98 98 96 98 98 96 96 98 98 98 95 95 96 95 96 94 97 97 99 100 100 100 100 99 98 100 100 100 100 100 100 100 100 100 100 100 100 100 100 100 100 100 100 100 100 100 100
94 92 97 99 99 96 97 95 100 98 98 99 100 100 99 99 100 99 97 97 95 96 98 98 99 98 100 100 100 100 99 100 100 100 100 100 100 100 100 100 100 100 100 100 100 100 100 100 100 100 99 100 100 100
95 95 97 96 97 98 96 96 97 97 98 98 98 99 99 97 99 98 98 97 99 100 100 100 100 100 97 98 99 100 99 100 100 100 100 100 100 100 100 100 100 100 100 100 100 100 100 100 100 100 99 99 100 100

GFSWCAN_sfc_rhum_021.txt.gz
RH
92 92 91 91 90 89 85 79 78 78 77 76 76 77 80 82 81 90 94 95 95 96 92 89 78 71 64 59 70 76 82 89 96 86 91 89 89 81 78 68 70 78 91 96 94 83 64 48 44 41 50 64 57 57
87 88 88 85 82 80 79 80 79 78 78 78 81 81 81 83 85 87 96 94 93 99 96 84 79 76 88 46 58 94 68 83 84 92 97 97 95 95 84 88 73 64 72 81 73 72 56 53 45 48 58 55 55 59
84 83 83 83 83 82 82 81 80 80 80 82 83 84 85 85 85 85 94 94 96 97 93 91 90 79 79 85 50 82 87 84 89 87 96 98 85 93 87 88 80 70 70 75 69 62 62 62 71 62 60 64 71 74
83 84 84 84 84 84 83 83 83 83 84 83 83 82 84 85 84 82 94 96 92 92 100 91 84 91 75 76 66 66 67 91 93 95 98 98 91 81 89 75 82 74 68 72 77 86 78 77 79 73 72 71 67 61
86 85 85 85 85 84 83 83 84 86 87 86 84 84 85 84 82 86 90 94 98 92 100 98 85 87 88 86 65 72 79 85 95 94 99 91 96 91 98 89 90 68 66 78 81 70 66 80 76 72 72 74 70 71
88 88 87 87 85 83 89 92 89 87 85 85 84 86 83 81 90 96 98 91 96 97 100 100 93 93 92 90 69 81 76 93 90 90 100 95 86 83 90 92 64 67 65 58 58 77 81 82 81 77 80 81 79 80
90 90 90 91 90 87 84 89 89 90 85 82 83 85 87 90 92 94 94 95 85 92 98 99 97 95 96 94 98 98 95 98 95 97 98 93 93 79 95 86 65 81 80 81 77 76 87 86 94 85 84 86 86 88
91 91 91 90 91 92 89 87 87 90 93 92 91 91 88 85 85 91 98 96 87 92 95 100 99 100 93 100 100 99 99 98 98 99 99 98 99 98 80 78 83 79 78 83 86 80 83 86 84 85 81 81 88 93
93 93 94 95 94 95 93 88 87 88 90 89 88 87 93 96 95 98 99 98 99 96 100 100 100 100 96 99 100 100 98 100 97 100 100 94 100 93 88 86 83 79 80 92 85 84 84 89 88 84 86 89 89 86
93 93 92 91 90 92 92 94 93 90 88 90 90 97 100 97 94 94 93 98 100 99 98 100 99 100 96 100 100 100 100 100 99 100 97 98 98 87 92 85 84 87 83 82 94 96 93 92 90 89 89 78 75 81
88 90 91 90 90 90 95 95 93 94 94 97 99 100 98 91 95 97 100 100 99 100 100 99 100 100 98 98 100 100 100 99 93 98 97 99 99 93 94 93 86 83 81 83 77 79 79 82 88 88 88 88 90 91
87 89 91 91 90 91 96 96 92 93 94 93 98 97 97 95 99 100 100 99 99 99 99 100 100 99 100 97 99 99 99 97 95 95 95 98 97 98 96 95 92 86 83 83 80 86 86 84 81 86 90 94 95 94
85 87 89 92 92 92 96 95 90 98 99 97 95 96 96 100 99 99 99 100 100 100 100 100 100 100 98 94 100 99 97 100 96 98 98 98 96 95 94 90 88 83 84 85 85 82 84 87 87 90 95 96 94 90
94 92 92 91 91 92 95 96 95 98 94 97 100 99 99 99 99 99 99 99 99 100 100 100 100 100 100 99 100 99 100 98 98 98 98 100 96 92 88 86 87 91 92 92 92 92 94 97 98 96 96 93 88 90
94 95 95 97 97 97 97 96 97 96 94 98 97 99 99 100 100 100 100 100 99 99 100 100 100 97 100 99 99 100 99 99 99 99 100 100 93 88 90 92 94 95 96 97 96 97 98 96 96 96 95 88 86 89
88 83 93 95 93 93 90 87 90 92 96 97 98 98 99 98 98 99 99 100 99 100 100 98 99 99 99 99 99 99 97 99 99 99 100 95 93 92 94 96 98 98 98 97 97 95 94 94 93 94 91 88 89 87
81 86 84 87 84 87 86 88 93 97 98 94 99 100 99 99 100 100 99 100 99 100 100 98 98 99 97 96 97 99 98 99 99 100 99 99 98 99 98 98 98 98 96 95 93 91 91 86 84 85 88 81 77 86
91 87 85 84 82 83 87 87 93 93 98 99 99 99 99 99 99 98 99 98 99 99 99 99 97 95 98 97 97 98 99 100 100 100 99 99 98 98 98 98 98 98 95 92 88 88 85 83 79 80 80 82 86 84
89 83 82 82 75 83 88 92 89 98 99 100 99 99 99 99 97 95 94 97 98 93 96 96 94 96 97 97 98 97 98 99 99 98 98 99 99 99 99 99 98 97 94 88 80 83 86 85 90 87 85 85 91 89
79 81 82 81 77 88 89 94 90 97 99 100 98 83 90 88 89 90 83 80 81 86 91 94 96 96 97 96 97 97 96 98 99 95 96 96 97 96 97 96 95 94 93 93 93 94 92 92 92 89 87 87 95 97
81 87 78 81 89 87 95 98 99 99 99 98 100 99 96 82 79 84 87 78 81 95 94 96 97 97 96 96 95 96 95 95 96 97 96 94 95 92 92 94 94 93 93 94 94 94 94 94 93 92 95 98 98 98
92 76 92 80 82 82 88 91 97 98 93 95 95 95 97 98 97 95 82 87 94 96 96 95 94 93 90 91 93 94 94 93 94 93 94 93 94 94 94 95 93 95 95 96 94 96 95 94 95 93 94 97 97 96
80 84 90 82 82 82 87 94 90 89 92 96 92 91 98 99 100 92 96 90 95 95 95 91 91 87 89 89 85 88 89 85 91 93 94 94 94 95 94 94 94 95 94 94 93 94 96 91 91 95 96 96 97 98
73 86 93 93 88 99 88 89 89 92 93 94 86 84 96 99 94 94 98 94 94 92 90 93 90 88 82 85 90 91 92 84 88 92 92 88 90 93 91 92 92 92 92 88 92 95 95 97 95 95 98 100 100 100
82 91 84 89 91 81 90 93 94 91 96 99 90 96 97 94 98 98 98 97 95 96 96 93 89 91 96 95 94 94 91 86 91 92 95 91 93 90 90 88 93 91 89 92 96 98 100 99 100 100 100 100 100 100
98 98 90 93 94 86 91 94 98 99 97 99 99 98 94 94 94 100 95 98 97 98 97 97 97 94 93 91 94 94 95 82 79 91 89 84 86 94 94 94 96 98 96 98 97 100 100 100 100 100 100 100 100 100
99 98 92 97 98 94 96 97 95 96 100 97 99 97 94 99 100 97 98 97 98 98 95 95 93 93 93 92 91 94 94 91 92 91 89 90 93 94 96 99 100 98 99 100 100 100 100 100 100 100 100 100 100 100
99 98 93 93 96 97 100 100 100 98 99 97 91 98 100 99 100 96 96 96 96 94 93 90 86 86 91 92 95 96 97 96 94 93 94 93 92 95 97 97 98 100 100 100 100 100 100 100 100 100 100 100 100 100
98 98 91 98 96 97 98 99 99 98 93 97 99 99 100 94 97 97 95 95 95 94 96 97 97 98 96 94 94 94 90 92 87 92 100 100 100 98 100 100 100 100 100 100 100 99 99 100 100 100 100 100 100 100
94 98 99 96 98 94 100 100 100 99 96 98 93 83 89 97 96 95 94 94 94 97 99 99 100 98 100 100 100 98 100 100 99 98 100 100 100 100 100 100 100 100 100 100 100 99 100 100 100 100 100 100 100 100
97 97 98 99 99 98 96 94 90 94 98 99 98 97 98 98 98 97 96 98 98 97 96 99 100 100 100 100 100 100 100 99 100 100 100 100 100 100 100 100 100 100 100 100 100 100 100 100 100 100 100 100 100 100
97 100 99 100 98 98 96 98 99 99 99 99 99 100 99 98 100 99 98 98 96 100 100 100 100 100 100 100 100 100 100 100 100 100 100 100 100 100 100 100 100 100 100 100 100 100 100 100 100 100 100 100 100 100
98 99 98 98 97 97 98 96 97 98 98 99 99 99 100 97 100 99 99 99 98 99 100 100 100 100 98 97 99 100 100 100 100 100 100 100 100 100 100 100 100 100 100 100 100 100 100 100 100 100 100 100 100 100

GFSWCAN_sfc_rhum_024.txt.gz
RH
84 87 87 84 83 80 82 90 91 89 87 84 80 80 80 75 76 83 84 87 99 96 86 86 83 72 65 62 77 77 79 90 97 88 94 89 94 83 80 73 78 81 92 92 92 85 80 47 48 48 52 66 60 60
93 94 92 85 81 87 92 90 89 89 84 83 83 82 80 79 80 77 93 83 92 99 95 87 81 76 80 59 58 76 68 88 84 91 96 96 94 95 81 83 74 70 74 81 73 75 59 54 50 45 55 60 60 60
87 90 90 91 91 91 90 89 87 84 82 81 80 79 81 82 81 79 91 86 94 97 88 91 88 78 68 74 75 73 90 83 85 83 94 96 89 93 89 86 82 73 67 71 68 61 63 58 66 65 59 60 63 69
84 83 84 86 89 90 90 89 87 83 78 78 79 80 81 81 80 77 93 93 96 94 100 93 83 93 90 81 85 78 72 92 92 93 97 96 91 84 89 77 84 75 70 77 72 84 81 73 79 71 77 74 71 66
87 86 86 84 83 83 83 82 81 80 80 81 81 80 81 80 80 89 92 95 93 95 99 97 78 75 88 95 92 80 69 92 96 96 97 91 97 93 98 88 91 75 70 80 76 67 59 59 78 76 76 76 73 71
87 87 87 86 85 85 84 84 83 82 82 83 84 82 82 82 86 94 98 94 94 92 96 99 90 92 90 96 97 80 74 92 93 90 97 96 91 87 94 91 61 65 68 60 53 76 88 89 85 80 81 81 77 78
90 86 82 86 87 87 87 88 87 85 85 84 84 85 85 85 93 96 95 94 90 92 97 99 99 89 97 94 99 98 95 99 94 97 98 96 96 80 95 80 55 70 74 84 81 77 86 86 90 86 86 88 87 88
92 90 87 85 88 92 90 87 87 88 86 86 87 86 86 85 87 94 97 96 88 93 94 100 96 96 93 100 100 99 99 97 98 99 99 99 98 96 85 76 91 86 83 87 90 84 82 90 90 94 89 87 93 96
92 92 91 89 85 88 92 92 90 86 87 86 86 88 90 90 95 96 97 88 97 92 98 100 100 98 96 100 99 99 98 99 98 100 100 98 100 90 76 89 90 87 82 94 89 87 86 91 92 90 90 91 94 94
95 96 96 95 92 91 92 91 88 83 84 88 90 93 100 97 94 95 98 98 100 99 100 100 99 100 96 100 100 100 100 100 100 100 97 99 97 92 92 88 87 86 84 83 96 97 94 95 93 91 88 84 85 89
93 93 93 94 93 91 88 89 90 90 92 94 99 100 98 93 94 97 100 100 99 99 99 98 99 100 97 98 100 100 100 100 99 99 98 99 98 91 92 94 85 83 80 82 78 80 82 83 89 89 87 87 88 88
91 90 89 91 93 94 91 90 90 92 95 93 93 94 96 96 99 99 99 99 100 96 100 100 100 99 100 97 98 99 99 98 96 95 99 99 97 99 98 98 95 90 88 86 82 87 87 86 84 86 88 89 91 92
91 91 90 89 91 95 92 93 94 97 95 98 94 96 95 100 99 99 99 100 99 100 100 100 100 100 98 95 99 100 98 99 98 99 97 97 98 97 95 93 94 89 88 88 88 85 87 89 89 91 96 95 90 88
91 91 92 92 93 97 95 93 98 97 98 98 98 98 99 99 99 99 99 99 99 99 100 100 100 100 100 99 100 99 100 98 98 99 97 99 98 98 93 91 91 94 94 94 94 94 95 96 98 98 96 90 90 91
90 91 91 93 95 97 97 97 96 96 97 99 99 98 99 100 100 100 100 100 99 100 100 100 100 98 100 99 99 100 98 99 99 99 99 99 96 95 96 95 95 96 96 96 96 96 97 97 96 95 93 91 91 90
91 90 98 96 97 97 95 95 96 96 96 98 98 98 99 98 98 99 99 99 99 100 99 98 99 99 99 99 94 98 98 98 99 99 99 99 98 98 98 98 98 98 98 97 97 95 95 96 95 90 86 89 89 89
88 97 97 97 97 94 92 95 93 96 98 98 99 98 99 99 99 99 99 98 98 100 99 99 98 98 98 96 96 97 98 99 99 99 99 99 99 99 98 98 98 97 96 96 96 95 95 93 83 79 78 74 75 86
97 95 94 94 84 82 88 88 93 92 98 99 98 98 97 97 96 96 97 98 99 99 96 98 92 95 96 96 96 97 97 98 99 98 99 99 99 99 98 98 98 97 96 96 94 94 92 84 82 84 76 78 86 88
94 93 90 86 87 90 90 92 88 96 98 99 98 96 98 97 83 86 87 90 90 89 92 91 91 95 96 96 97 97 97 97 98 96 96 97 98 98 98 98 97 96 95 94 92 92 92 92 93 94 92 90 93 92
78 80 82 86 87 92 95 96 90 94 99 99 94 80 89 89 86 85 80 76 77 81 89 93 96 96 96 96 96 96 96 97 98 94 94 94 95 94 96 94 94 94 93 93 93 94 92 92 92 92 94 94 96 94
76 79 70 78 89 86 95 98 99 99 99 98 100 98 93 76 79 82 81 73 76 94 93 95 97 96 96 95 95 95 94 94 95 95 95 92 94 92 93 94 93 92 92 94 94 94 94 94 94 93 96 97 97 97
91 72 90 76 80 83 86 89 98 99 95 98 96 96 99 98 98 99 85 86 93 96 95 95 94 93 90 92 92 93 94 92 94 92 92 87 92 92 93 95 92 94 94 95 94 95 95 93 94 94 96 97 95 94
76 82 88 81 80 80 86 91 88 88 93 97 92 92 98 99 100 88 97 89 95 94 94 92 90 86 87 88 84 87 87 85 90 91 92 92 92 93 92 93 93 94 94 93 91 93 95 90 92 95 95 95 97 97
69 86 93 92 85 95 90 91 90 92 94 94 86 95 97 100 93 94 98 94 94 90 88 91 88 85 81 84 90 91 91 83 88 92 88 86 90 91 87 88 88 88 90 85 91 95 95 97 94 94 98 99 100 100
82 93 85 90 91 84 94 94 95 92 100 99 92 97 98 94 97 98 98 97 95 96 95 93 89 91 96 96 94 94 89 86 91 93 94 90 95 90 90 91 94 93 90 93 98 99 100 100 100 100 100 100 100 100
96 97 97 98 94 88 98 99 100 99 99 99 98 97 93 94 95 100 94 98 97 98 98 98 98 94 94 93 96 96 98 83 80 93 95 89 89 96 99 99 99 98 97 100 100 100 100 100 100 100 100 100 100 100
99 98 92 91 98 95 100 99 96 96 99 94 98 97 93 100 100 97 96 95 96 97 95 95 94 93 94 92 91 93 93 91 93 94 93 92 93 94 98 100 100 98 98 100 100 100 100 100 100 100 100 100 100 100
98 97 94 97 98 97 100 100 100 99 98 96 88 100 100 100 100 97 96 96 95 91 91 92 91 93 96 95 96 97 97 99 97 96 95 91 96 99 100 100 100 100 100 100 100 100 100 100 100 100 100 100 100 100
98 100 94 100 96 97 98 100 100 98 91 96 99 100 100 94 98 98 95 95 95 95 97 97 98 99 98 96 97 99 96 96 89 98 100 100 100 98 100 100 100 100 100 100 100 99 99 100 100 100 100 100 100 100
95 98 99 100 97 96 99 99 100 100 94 99 93 84 91 98 97 96 96 96 96 100 100 100 100 99 100 100 100 100 100 100 100 99 100 100 100 99 100 100 100 100 100 100 100 100 100 100 100 100 99 99 100 100
98 97 98 99 98 99 96 99 96 97 100 100 99 99 99 100 99 98 98 100 100 99 99 100 100 100 100 100 100 100 100 100 100 100 100 100 100 100 100 100 100 100 100 100 100 100 100 100 100 100 100 100 99 100
99 100 99 100 99 98 99 98 100 100 100 100 100 100 100 99 100 100 99 98 97 98 100 100 100 100 100 100 100 100 100 100 100 100 100 100 100 100 100 100 100 100 100 100 100 100 100 100 100 100 100 100 100 100
99 100 99 99 98 98 97 96 98 99 100 100 100 100 100 97 100 99 99 100 98 100 100 100 100 100 100 100 100 100 100 100 100 100 100 100 100 100 100 100 100 100 100 100 100 100 100 100 100 100 100 100 100 100

GFSWCAN_sfc_rhum_027.txt.gz
RH
85 88 89 88 86 84 84 84 82 81 80 88 87 88 83 81 80 71 95 89 93 97 87 81 83 72 64 61 75 77 73 77 93 87 92 88 89 76 74 68 77 76 80 88 81 91 70 45 38 48 48 47 50 52
89 86 91 86 85 88 84 83 83 83 90 90 89 90 83 82 78 77 92 94 94 97 97 93 84 78 74 48 57 63 66 70 71 85 91 91 98 97 76 73 64 75 68 73 66 66 58 46 46 43 45 46 53 54
92 86 84 83 84 82 82 83 87 89 90 87 85 83 83 81 81 82 94 95 95 94 91 92 86 75 73 73 58 75 80 75 83 82 91 92 91 89 93 80 75 66 61 66 65 54 52 52 48 49 47 49 49 47
89 91 92 92 93 88 92 90 91 89 90 88 84 83 81 81 86 81 91 94 93 94 99 90 89 88 80 72 73 73 71 85 86 88 93 97 94 76 89 74 81 66 60 66 63 55 66 58 58 52 58 63 60 56
85 88 92 92 91 91 91 91 91 90 89 88 87 88 88 86 84 85 93 92 83 95 100 95 78 70 74 91 81 80 76 87 92 93 98 92 89 88 95 85 82 66 64 71 67 47 53 50 55 63 64 61 58 61
87 86 85 88 90 90 90 90 90 91 88 88 85 85 85 88 80 92 95 92 89 92 98 100 88 89 89 98 97 92 84 87 90 90 95 89 86 82 94 85 56 59 66 61 49 59 70 78 71 65 66 65 63 63
87 87 86 85 84 84 86 85 83 83 82 82 80 76 76 79 89 92 94 93 80 94 99 99 98 90 92 95 99 99 94 92 88 89 97 90 92 80 96 78 52 58 64 69 73 69 72 73 70 72 70 71 72 69
85 87 88 87 86 84 84 83 83 83 83 82 82 81 82 82 83 96 96 86 82 96 95 99 99 97 90 100 100 98 99 96 96 94 96 96 95 93 86 64 74 77 75 78 75 76 71 78 79 82 79 77 81 84
88 88 91 89 88 88 86 86 85 86 86 84 86 82 90 92 96 96 96 90 97 90 98 97 100 100 92 99 99 100 95 100 97 100 99 94 100 91 74 68 82 83 81 86 85 82 79 82 84 83 80 80 86 87
91 86 90 91 89 89 88 87 88 87 86 84 88 92 99 93 93 93 99 99 98 97 98 100 96 100 93 100 100 100 100 100 100 99 95 100 97 84 86 85 80 82 81 79 92 96 93 92 88 86 83 80 82 84
94 90 93 93 94 89 86 88 87 87 83 93 96 99 96 94 91 96 100 99 99 100 99 96 99 100 96 98 100 99 100 100 100 99 99 100 98 89 92 89 82 79 76 78 74 79 76 79 84 86 87 87 87 85
92 93 95 93 90 88 85 85 85 89 95 94 94 95 96 95 98 99 99 100 100 98 100 100 99 98 100 94 97 99 100 100 99 94 100 100 98 96 96 97 94 90 88 90 82 88 88 83 80 85 88 90 93 93
90 91 94 93 90 87 87 84 96 96 98 97 91 96 94 100 100 97 98 99 100 100 100 100 100 100 99 96 100 99 100 100 99 100 99 99 97 96 96 94 97 94 90 87 87 86 85 86 87 90 94 95 96 96
90 89 90 94 95 95 97 94 95 94 95 97 96 97 99 98 97 99 99 100 100 100 100 100 100 100 100 100 100 100 100 99 98 98 98 99 99 99 96 93 93 96 94 94 94 92 93 94 97 97 97 97 97 96
91 91 92 96 98 98 97 95 93 96 96 99 99 98 98 100 100 100 100 100 100 100 100 100 100 97 100 100 100 100 98 98 98 98 99 99 100 98 97 96 96 96 97 96 94 96 97 97 96 97 97 97 96 96
91 90 98 97 97 98 96 95 95 95 99 97 96 97 98 99 98 98 98 98 98 99 99 98 100 98 100 97 95 97 94 94 96 98 99 99 99 99 98 98 98 98 97 97 97 96 96 96 96 94 95 95 95 92
88 99 96 93 94 94 92 95 96 99 99 97 98 97 98 98 98 98 98 97 98 100 99 94 93 97 88 91 91 92 96 97 97 98 98 99 98 98 98 98 98 97 96 96 95 94 94 95 94 90 86 77 78 86
98 98 95 90 84 94 94 88 92 89 94 96 96 97 94 95 95 95 96 94 98 95 88 96 90 93 95 94 93 95 96 96 98 96 96 97 98 97 97 97 97 96 95 95 94 95 95 94 89 83 76 76 80 80
97 96 94 92 92 90 92 92 86 93 97 97 88 87 93 89 79 81 84 83 84 83 85 83 88 90 94 94 96 96 96 96 95 93 94 96 96 96 96 95 95 95 94 93 91 91 91 92 92 91 91 90 91 91
95 96 98 94 87 97 95 96 88 92 96 97 88 79 78 82 80 80 77 73 72 76 86 90 93 94 94 94 94 94 94 95 94 92 93 93 94 93 95 93 93 93 91 91 92 92 90 90 91 91 92 91 92 93
78 82 77 77 88 86 95 97 98 98 97 94 98 94 90 80 78 81 81 69 75 89 90 93 95 96 95 94 93 93 93 92 94 93 91 90 92 90 91 92 91 90 90 92 92 93 92 92 90 90 93 95 94 94
86 66 89 82 82 83 86 88 97 97 93 96 93 93 96 100 98 98 79 84 90 94 93 92 92 91 88 91 92 92 94 90 92 90 91 86 90 89 91 93 88 93 92 94 92 94 92 88 87 87 90 93 88 89
72 76 84 79 80 79 84 88 88 88 92 93 91 92 97 98 97 78 95 84 91 91 92 89 89 88 87 90 86 87 85 81 87 88 90 88 87 89 86 87 88 91 91 87 81 86 90 86 85 90 90 89 91 91
68 85 91 89 84 92 90 93 88 90 93 95 94 98 97 99 84 91 94 88 92 88 85 89 86 83 77 82 87 88 87 79 85 90 84 77 84 84 81 84 84 84 82 78 83 90 90 94 94 90 94 93 94 94
82 93 84 87 93 86 94 97 97 94 100 99 96 97 99 90 96 98 96 93 92 95 93 89 85 87 94 94 91 91 85 78 81 84 88 78 84 81 84 84 89 89 87 91 95 94 95 95 95 94 92 96 95 95
97 98 98 99 99 94 98 100 100 100 98 97 98 94 91 92 94 99 91 97 94 96 97 97 97 91 91 86 88 88 89 74 73 89 88 82 83 90 91 92 90 92 90 97 98 98 96 96 98 99 96 94 99 100
98 99 93 88 95 95 100 99 94 95 98 94 97 96 92 100 100 95 93 93 92 96 90 93 91 91 89 88 87 87 84 85 88 86 86 83 84 85 90 96 99 95 92 97 99 100 100 99 99 98 99 96 95 100
99 94 94 98 97 96 100 100 100 99 99 91 87 100 100 99 98 94 94 93 92 88 90 92 90 90 92 92 92 93 94 92 90 86 82 83 90 94 96 98 97 100 96 97 98 100 98 99 99 99 100 100 100 96
100 100 92 100 97 98 97 100 100 95 89 93 98 100 98 91 97 97 94 93 93 93 97 96 97 97 96 94 97 98 95 88 83 91 95 98 98 94 95 97 100 100 100 99 100 99 97 98 100 93 94 95 96 97
98 98 98 100 97 100 100 99 100 99 91 97 91 83 87 96 96 94 95 95 95 100 100 100 100 96 99 97 100 97 100 100 99 96 100 100 99 97 100 100 100 100 100 100 100 98 100 99 97 93 94 93 94 94
97 98 98 97 98 100 97 100 100 98 99 99 99 99 99 99 97 96 96 98 99 99 98 100 100 100 98 100 100 100 97 97 100 100 100 100 100 100 100 100 100 100 100 100 100 100 100 100 100 100 96 96 96 96
99 100 100 100 99 99 98 100 100 100 100 100 100 100 100 99 100 99 99 96 96 97 100 100 100 100 100 100 100 100 100 100 100 100 100 100 100 100 100 100 100 100 100 100 100 100 100 100 100 100 100 99 98 96
99 100 99 100 98 99 98 97 98 99 100 100 100 100 100 96 98 96 99 99 96 98 100 100 100 100 100 100 100 100 98 99 100 100 100 100 100 100 100 100 100 100 99 100 100 100 100 100 99 98 97 99 98 96

GFSWCAN_sfc_rhum_030.txt.gz
RH
87 89 87 84 87 88 89 85 83 86 83 80 80 84 90 88 82 70 77 75 67 69 70 74 65 61 46 42 58 50 60 65 79 83 77 72 86 65 46 39 60 59 66 79 58 81 73 29 29 34 29 33 28 31
88 88 87 89 86 90 87 84 85 85 87 81 85 91 88 89 86 72 84 72 65 68 90 74 86 76 66 35 39 58 45 48 54 62 66 62 97 96 51 68 52 63 49 52 45 42 33 31 26 26 29 27 33 32
86 84 86 90 88 86 86 88 84 84 83 84 87 86 88 91 85 74 87 68 63 68 60 73 83 61 55 56 44 50 46 43 52 43 67 76 94 83 95 60 48 50 47 53 50 30 34 34 26 30 28 29 27 28
92 94 87 83 87 87 86 85 84 84 84 84 89 86 89 87 77 78 75 62 54 60 80 62 83 84 54 55 57 50 42 46 53 57 68 80 89 54 74 54 62 42 50 42 44 35 42 38 32 28 31 34 34 30
92 93 91 91 88 88 88 87 88 87 90 90 90 88 92 84 75 83 70 66 50 59 83 73 57 62 73 67 64 57 59 57 69 77 88 79 64 70 73 66 64 42 42 57 54 31 34 25 28 32 35 39 35 36
89 92 92 92 93 94 93 93 90 90 91 94 93 90 92 84 78 84 96 69 61 65 94 100 83 83 83 74 66 63 58 60 65 63 79 56 61 67 90 63 31 40 37 35 34 37 36 48 42 36 37 36 37 39
86 88 90 91 92 92 92 93 93 93 92 91 90 92 88 82 80 80 71 64 71 66 78 99 97 76 92 89 88 74 62 62 61 68 75 64 71 62 91 70 30 34 39 44 51 52 49 48 41 48 43 42 50 40
87 86 86 86 87 89 89 88 88 88 89 89 91 89 81 75 71 72 82 83 68 75 92 100 99 98 87 100 100 98 91 84 75 69 75 72 75 81 82 46 37 44 49 53 54 56 58 50 50 51 49 50 52 52
89 88 86 86 86 85 85 84 82 82 81 82 84 84 80 74 82 92 91 77 76 86 97 99 100 98 94 98 97 98 98 100 96 98 85 72 86 80 62 58 46 51 57 52 62 60 60 59 57 58 57 55 55 61
90 90 90 88 87 86 86 85 84 83 84 84 75 84 99 85 88 87 94 92 85 91 84 94 78 96 82 100 100 99 100 100 100 97 88 98 75 65 69 68 65 65 63 64 72 76 75 71 68 67 64 62 63 66
90 90 90 89 89 88 87 84 84 80 72 77 93 92 78 93 94 91 99 99 96 96 86 76 80 88 86 88 97 97 100 100 100 94 95 98 85 72 75 83 74 69 64 62 60 60 60 63 68 70 71 73 73 72
94 94 88 89 89 88 87 87 83 77 79 84 84 77 93 78 75 95 99 94 96 87 98 99 96 82 99 88 89 97 99 99 100 97 99 98 98 91 91 91 79 75 71 71 65 67 68 66 67 73 80 88 90 92
93 90 88 88 88 87 86 85 90 94 90 83 72 87 88 100 100 100 99 98 100 100 99 100 100 96 97 94 99 93 100 100 98 100 99 99 98 95 95 91 92 86 84 85 87 81 87 90 90 93 94 95 94 95
94 88 87 85 86 87 90 92 94 94 89 90 100 100 100 99 98 99 100 100 100 100 100 100 100 100 100 100 100 100 100 100 100 97 96 93 98 99 99 99 96 96 96 93 92 91 95 96 97 97 97 98 97 98
92 92 90 93 90 92 93 92 92 92 91 99 94 97 98 100 98 100 100 100 99 100 100 100 100 98 100 100 100 100 100 96 90 91 93 95 100 99 98 98 97 97 97 97 96 96 97 97 96 97 98 97 96 97
86 84 94 96 97 96 95 92 91 90 98 94 90 93 94 96 96 96 98 98 99 100 100 100 100 100 98 92 95 94 82 88 92 94 96 97 98 98 98 98 98 98 97 97 97 96 96 96 95 94 94 95 96 96
89 96 95 93 92 92 88 86 86 96 96 95 96 97 97 96 96 97 98 97 98 100 99 88 89 97 72 80 86 82 91 93 95 94 93 97 97 97 97 97 97 97 95 95 94 93 94 95 94 89 88 89 85 86
96 95 93 90 84 84 88 83 91 92 91 92 93 96 94 96 97 96 95 90 89 78 70 88 66 80 88 86 86 91 90 94 93 92 92 94 94 96 95 96 96 95 94 94 94 94 92 91 86 88 86 84 80 79
94 94 93 94 90 86 93 91 68 82 93 91 87 85 80 85 77 76 80 74 69 64 64 64 78 82 88 86 92 94 94 93 91 89 90 94 94 95 95 95 94 93 89 88 84 85 87 89 88 86 86 83 85 85
96 96 92 86 87 84 90 90 69 77 88 82 69 73 74 74 74 82 78 65 57 59 73 78 87 90 90 90 90 91 90 92 89 88 88 88 89 90 92 88 87 89 85 86 87 87 82 82 82 84 85 84 86 88
91 90 78 72 74 79 86 85 93 75 71 80 85 64 67 70 80 83 79 58 73 73 82 88 91 92 91 90 87 88 89 87 90 88 86 85 87 84 85 87 86 83 83 86 86 87 84 85 81 80 88 90 89 87
78 67 74 67 68 73 72 72 81 78 70 76 73 65 76 84 82 80 59 73 77 88 86 84 84 81 77 85 85 84 89 85 88 84 86 81 84 83 85 87 80 87 85 86 82 87 81 72 74 75 82 84 75 78
65 64 69 72 81 84 76 65 83 70 79 78 74 73 77 78 70 52 78 71 83 85 85 80 82 78 80 87 81 79 76 72 73 74 76 73 70 75 71 70 71 77 75 67 63 70 79 72 74 80 78 78 80 80
61 79 85 84 76 86 80 84 67 71 77 80 75 84 86 80 61 70 79 76 86 81 78 84 75 74 71 75 76 77 71 63 68 74 65 62 66 67 64 66 68 70 69 64 70 77 77 83 79 76 80 79 80 81
82 92 82 89 80 81 88 90 87 81 95 89 85 86 86 70 81 79 79 80 83 88 86 80 75 74 84 84 77 73 67 58 64 67 70 60 67 64 65 65 71 70 71 81 82 82 82 82 81 80 77 80 83 80
96 96 92 91 90 85 87 96 95 93 88 89 91 77 78 78 81 86 73 85 83 89 91 90 87 80 76 68 71 72 69 56 56 71 66 61 63 75 76 75 72 78 74 82 84 82 79 80 82 81 80 77 79 83
96 97 84 73 78 79 88 84 77 83 90 92 87 83 79 87 88 80 78 79 80 89 82 82 75 74 74 72 70 67 63 64 68 65 65 64 66 68 76 80 82 80 75 80 82 84 84 81 81 80 81 79 80 83
86 80 92 91 83 78 90 87 88 92 89 77 71 93 87 83 84 79 78 81 79 77 81 81 76 74 77 78 78 77 78 77 80 74 72 72 72 78 82 82 84 88 82 85 82 80 80 80 81 80 81 82 82 81
91 88 76 94 87 87 91 92 91 84 78 77 86 86 86 76 83 84 83 79 80 80 85 85 87 84 83 81 84 82 79 76 56 60 67 79 80 83 81 82 82 84 85 83 77 81 80 81 82 84 82 85 84 82
92 88 84 88 92 92 94 89 91 88 77 81 74 70 72 82 86 82 83 85 86 90 90 87 87 83 86 83 87 86 87 86 86 83 82 85 88 87 86 85 84 85 87 85 83 78 80 83 81 80 80 82 83 85
85 84 84 81 87 85 85 87 86 82 84 87 85 86 87 87 86 84 85 86 88 88 86 89 91 88 86 86 83 80 84 88 91 89 88 89 88 86 86 86 86 88 86 85 85 85 86 84 83 84 83 84 84 86
91 93 87 89 91 85 90 92 90 89 89 86 91 90 92 87 89 88 89 90 90 89 98 92 88 90 89 88 90 90 99 90 88 90 89 90 86 86 86 85 88 87 85 84 84 85 85 85 86 85 86 84 86 87
91 89 87 89 91 92 89 89 84 90 89 88 90 91 90 84 86 88 88 89 87 85 86 89 90 90 88 87 86 89 82 84 94 100 98 95 99 96 91 87 88 85 85 85 84 85 85 84 84 84 84 87 87 87

GFSWCAN_sfc_rhum_033.txt.gz
RH
92 87 88 89 86 87 84 86 91 88 85 87 89 83 81 84 86 90 75 68 65 75 64 68 53 44 38 41 56 46 55 66 69 70 59 46 69 43 37 31 70 68 68 77 61 65 70 19 21 29 25 21 22 21
90 86 87 90 90 89 88 88 87 85 86 86 86 82 80 87 88 92 74 58 55 82 88 59 60 53 41 30 37 47 51 53 42 46 51 46 84 87 44 53 35 63 55 51 40 42 32 25 24 21 18 22 24 22
91 91 87 89 90 89 86 84 87 85 83 83 83 80 82 88 91 84 64 56 66 87 74 59 54 49 50 49 46 52 49 34 39 34 40 62 76 66 78 57 42 46 34 48 44 33 26 25 22 19 20 23 20 21
94 89 88 88 90 90 87 91 85 85 86 84 87 86 86 88 90 70 61 59 60 64 87 71 56 59 47 48 54 50 51 41 36 37 56 72 75 32 63 51 58 39 43 43 38 29 28 28 26 24 22 24 23 22
94 92 89 90 90 89 89 89 90 91 87 86 86 90 90 89 82 76 77 70 56 52 70 57 54 48 48 52 56 51 53 54 42 62 79 74 43 46 55 59 51 32 38 55 53 31 37 30 24 22 26 27 28 25
93 94 93 91 90 89 88 88 87 88 89 92 92 92 89 84 81 83 96 59 54 60 60 82 66 55 47 46 51 61 53 58 41 50 72 49 32 41 79 60 25 23 33 30 37 35 35 30 34 28 24 24 27 27
93 94 94 93 94 93 94 91 87 89 90 90 87 84 79 71 65 77 67 53 59 43 52 67 87 72 56 61 63 64 54 47 63 61 64 56 47 55 74 74 39 29 23 27 31 40 44 36 31 35 34 28 35 28
90 94 93 93 93 92 93 94 93 92 93 86 84 80 84 76 71 75 72 67 52 50 64 81 91 97 82 96 91 70 74 64 64 64 56 60 53 68 70 40 34 29 30 41 40 43 44 44 39 44 36 36 38 35
88 90 91 90 91 91 91 92 90 88 88 88 84 79 84 86 91 81 84 74 60 58 75 98 97 100 94 96 97 92 75 83 55 80 73 59 78 82 56 50 48 56 53 55 47 48 46 48 43 46 44 43 41 43
89 89 88 87 87 88 87 89 90 89 88 84 70 60 81 79 90 71 74 75 61 63 88 100 93 100 94 100 100 99 100 98 95 90 58 74 69 62 66 65 63 60 55 52 59 56 57 57 53 53 50 48 48 50
90 90 89 88 86 86 86 86 85 82 80 56 72 89 78 84 89 94 88 78 73 87 76 77 88 98 95 99 100 99 100 98 100 99 87 72 72 91 86 82 73 65 58 55 54 53 52 52 56 59 60 60 62 63
89 88 88 87 86 85 85 80 75 58 77 87 82 80 78 96 99 96 97 98 88 71 76 85 74 78 99 94 88 95 99 100 100 98 100 99 94 88 94 94 88 80 77 69 60 60 59 59 58 66 76 87 92 93
89 88 87 87 88 82 82 88 88 89 83 75 83 94 89 94 100 100 100 94 95 96 96 98 95 83 88 85 95 90 100 100 100 99 94 93 78 90 95 96 91 86 86 87 88 86 88 90 90 94 96 96 95 96
90 90 90 89 88 90 92 92 90 86 81 94 100 100 100 100 96 97 99 100 100 100 100 100 100 99 100 100 100 100 100 100 100 96 95 87 87 92 95 95 90 94 94 94 95 96 97 97 98 98 98 98 97 97
88 88 88 88 90 89 89 88 87 81 93 91 82 97 93 97 98 98 100 100 97 99 100 100 100 98 100 100 100 100 100 96 86 91 90 92 95 94 95 97 97 97 97 97 97 97 97 97 96 97 97 97 96 96
84 80 78 88 86 88 90 86 74 76 94 81 86 93 90 90 97 94 93 97 92 98 100 100 100 100 100 92 94 97 84 87 91 92 93 93 97 97 97 97 98 98 97 97 96 96 96 96 95 96 95 95 96 95
81 94 95 95 94 92 88 74 71 92 94 95 95 95 96 93 93 94 96 91 97 100 99 99 96 99 70 81 85 82 93 95 95 93 92 95 96 96 96 96 96 96 95 95 94 93 94 94 91 85 87 90 88 91
91 94 90 86 77 76 64 68 75 82 92 93 94 96 94 96 96 96 95 95 99 92 91 87 63 81 86 86 88 91 92 94 92 90 91 94 94 94 95 94 94 93 93 94 94 93 93 92 88 90 89 89 86 86
92 94 95 90 80 72 83 86 64 80 93 92 91 91 92 95 89 88 89 82 70 62 62 67 83 86 90 87 92 93 95 91 90 87 88 93 94 94 94 93 93 91 88 86 81 80 82 86 87 84 84 78 84 84
94 92 90 88 80 71 91 90 65 68 78 80 81 76 77 80 78 82 80 63 55 58 72 81 88 91 90 91 89 90 92 91 87 87 88 88 89 90 92 89 86 86 78 76 77 74 70 73 74 75 76 76 82 85
89 89 76 70 80 74 89 84 75 68 73 79 72 65 71 70 80 82 78 56 72 70 81 85 90 91 88 87 85 85 89 86 90 88 88 86 87 82 81 81 77 73 75 78 79 75 75 73 67 67 79 82 80 77
76 67 72 65 67 75 70 66 66 63 57 61 61 58 74 82 81 76 58 72 83 88 86 85 85 78 78 84 84 81 84 78 78 74 74 71 76 74 74 72 68 74 71 74 72 78 73 68 68 70 77 79 69 73
63 60 63 67 95 89 80 56 86 60 79 72 62 67 73 76 65 48 73 67 81 82 78 73 77 73 77 79 72 70 66 64 66 67 70 67 65 71 67 65 67 73 71 62 58 66 74 67 69 76 73 73 76 75
61 86 91 89 80 91 86 84 57 61 69 69 68 76 76 73 56 65 77 73 81 73 72 81 72 70 68 70 66 64 59 56 62 69 61 57 60 59 57 60 63 65 64 59 64 71 71 77 70 70 74 75 76 75
75 90 89 84 80 80 82 85 83 71 80 74 75 76 79 67 74 72 74 78 81 86 83 74 69 69 79 78 71 66 61 54 59 60 64 55 61 57 58 58 63 60 64 77 78 76 77 76 76 74 71 76 77 74
88 90 84 84 81 80 77 84 82 83 77 80 83 72 79 75 74 79 71 86 82 86 88 89 86 75 68 61 64 64 58 48 49 64 57 54 58 72 72 70 68 73 67 76 79 77 74 73 74 72 74 70 70 75
84 86 77 65 67 70 80 78 72 78 81 83 81 80 77 80 81 78 75 75 79 85 75 76 73 68 66 62 58 58 57 59 63 57 57 55 58 61 72 79 79 75 69 72 75 76 77 76 76 75 76 74 75 77
77 73 86 83 78 71 80 77 78 82 82 70 67 85 82 79 80 81 77 78 77 73 74 74 70 68 68 66 67 67 70 70 72 64 63 62 63 69 71 72 75 72 74 78 78 76 76 76 76 76 76 78 78 75
81 80 69 87 77 79 83 82 81 77 72 74 81 79 80 71 80 83 80 75 73 75 81 82 81 77 76 74 77 75 74 74 63 50 45 73 75 78 71 73 74 74 76 76 65 71 75 77 78 79 76 78 76 76
84 80 76 80 82 86 89 83 89 84 70 73 68 65 73 81 81 76 80 79 80 86 84 81 81 79 82 81 82 79 80 79 81 80 78 78 80 78 77 77 77 77 78 78 77 72 62 74 72 75 76 75 76 79
76 77 74 74 84 88 88 85 83 79 80 85 81 82 83 85 84 76 77 80 82 82 81 83 84 81 80 79 78 75 81 82 79 77 79 78 78 78 78 78 78 80 78 77 78 78 78 79 76 75 74 75 75 77
82 77 79 83 88 86 82 83 82 82 82 82 86 83 86 83 82 84 82 83 82 82 94 83 81 85 80 80 81 84 88 79 76 78 64 79 78 77 77 75 77 78 78 79 79 78 77 78 80 78 78 76 76 78
79 80 79 82 86 83 86 80 73 81 81 81 84 82 84 81 82 88 80 83 87 83 81 81 81 82 80 73 74 80 75 75 82 89 80 85 92 89 86 79 78 78 78 80 79 78 77 77 78 77 78 78 78 79

GFSWCAN_sfc_rhum_036.txt.gz
RH
83 88 91 87 88 90 90 87 87 85 87 88 91 90 87 84 82 85 92 86 88 93 70 64 60 61 50 45 56 42 57 68 70 71 78 64 72 46 34 29 72 81 98 86 79 74 71 31 23 32 33 34 28 27
88 91 92 89 89 90 85 88 89 87 92 86 88 86 85 84 83 79 95 87 76 93 88 60 65 52 55 40 40 45 49 67 82 76 61 60 87 84 53 69 42 73 74 83 74 64 45 35 32 30 30 33 29 32
93 95 91 88 90 86 88 90 89 90 90 87 87 85 89 86 82 87 94 89 94 91 93 78 67 59 48 48 42 59 48 51 56 61 53 64 72 73 87 62 53 51 42 63 64 50 52 44 34 26 23 28 23 21
95 87 89 89 91 90 88 90 87 88 88 90 89 88 88 85 84 89 94 92 83 72 98 90 60 62 42 45 62 62 67 65 56 63 63 74 84 45 72 49 63 41 64 51 52 45 47 32 31 33 30 28 29 26
95 90 91 91 94 90 88 88 88 88 93 91 85 85 84 84 88 94 90 88 58 60 78 82 51 42 40 44 47 56 83 77 95 91 85 73 54 60 59 51 58 30 34 53 59 41 53 43 33 39 38 35 29 31
94 92 92 92 91 93 91 90 88 87 84 83 87 88 85 84 90 90 97 92 73 74 79 85 50 49 44 44 46 55 70 70 78 74 77 48 40 48 83 64 36 26 28 31 40 43 46 48 40 36 40 39 32 36
95 94 94 92 91 90 90 93 90 91 90 84 88 92 88 88 71 81 86 69 72 81 68 69 72 66 49 46 51 56 55 82 77 87 73 60 56 49 83 76 39 35 35 36 38 39 44 47 46 40 39 37 36 32
95 95 96 95 91 91 91 91 92 90 89 90 89 89 83 84 80 71 62 69 64 56 53 71 79 85 72 73 76 61 74 77 69 70 62 69 62 76 84 56 50 47 42 35 43 43 47 50 47 41 40 41 42 41
94 94 94 94 93 94 92 88 89 91 89 88 86 85 91 91 94 71 76 66 78 67 69 79 87 97 93 78 72 79 77 88 57 84 76 67 82 92 93 86 79 71 66 61 53 52 48 48 47 44 44 47 48 46
94 94 92 92 92 91 89 86 85 85 84 79 73 74 98 83 82 70 59 64 61 63 74 90 87 99 95 100 98 89 87 84 81 80 58 83 92 78 78 82 82 80 74 61 67 68 65 63 57 55 51 50 49 54
89 92 93 92 88 88 88 84 78 77 83 84 88 98 83 83 72 80 71 67 62 79 78 80 87 93 94 100 100 98 99 95 98 81 84 85 92 79 76 88 87 81 76 69 64 63 63 61 60 61 65 82 87 85
87 89 91 90 89 89 88 85 86 88 82 90 82 70 80 82 93 96 88 96 82 81 91 95 93 97 100 98 98 97 100 100 99 87 98 96 95 82 80 84 85 87 84 82 77 80 82 84 85 89 93 95 94 91
89 88 86 84 86 88 88 86 85 84 84 74 74 88 96 100 100 95 90 86 98 99 99 99 100 99 99 97 100 100 100 100 99 99 94 94 86 84 83 84 84 86 88 88 89 88 88 91 91 93 94 95 94 94
89 87 88 89 90 90 87 86 85 78 84 94 99 99 99 94 94 97 97 100 100 100 99 99 100 100 100 100 100 100 100 100 98 94 94 93 93 94 94 93 90 95 96 95 96 95 95 94 96 95 96 96 95 96
89 86 86 87 88 86 82 80 79 67 69 85 75 89 90 96 94 95 100 100 98 96 99 100 100 99 100 100 100 99 96 87 88 93 93 95 95 94 94 94 95 96 96 96 96 96 96 96 95 96 96 96 95 96
82 78 81 91 91 86 85 72 67 65 72 73 79 91 86 86 89 89 90 95 90 97 100 100 100 100 95 94 82 94 75 89 93 94 94 93 95 96 96 96 97 96 96 96 96 96 95 95 95 96 95 95 96 95
77 76 92 87 80 76 71 69 75 86 87 91 95 87 88 83 92 93 95 92 92 100 100 88 89 96 74 75 81 81 91 95 95 95 94 95 96 97 96 96 96 96 95 96 95 95 96 96 92 87 92 95 93 94
85 87 86 82 80 74 59 69 88 87 90 93 93 94 92 92 93 91 91 93 95 83 76 92 87 82 90 86 88 95 92 95 94 94 95 95 96 96 95 96 96 95 94 94 94 94 94 93 90 93 92 92 91 92
93 93 91 88 89 71 79 90 74 84 93 94 93 92 93 95 91 94 95 94 77 73 82 83 84 88 91 92 95 97 95 93 92 91 92 95 95 95 95 94 94 93 92 93 89 90 90 92 92 91 92 84 88 91
91 89 86 79 73 69 89 94 72 83 91 94 95 94 93 94 94 93 90 82 75 76 84 88 91 94 93 94 93 95 93 92 88 89 90 90 91 91 94 91 91 91 87 82 83 82 78 78 78 78 79 82 87 86
90 86 72 63 67 71 92 82 80 75 86 88 81 80 84 75 80 84 80 61 79 80 88 92 94 96 93 92 88 86 90 85 92 89 87 87 88 80 78 78 76 74 78 79 80 78 80 78 72 74 84 88 85 85
75 72 70 62 69 69 75 72 69 68 66 71 66 65 75 85 83 77 64 79 85 91 89 87 88 82 82 88 89 85 88 84 85 82 80 76 81 80 81 78 74 80 78 80 78 84 80 73 76 77 83 87 80 78
63 60 68 74 96 92 80 58 83 57 73 66 61 66 75 78 64 50 75 74 88 88 79 77 81 76 80 78 75 74 72 70 73 73 76 73 71 76 72 71 73 80 77 66 62 70 78 73 75 82 80 80 82 82
64 90 95 93 84 91 85 80 54 59 64 65 64 73 75 72 55 67 83 83 87 73 78 90 77 72 68 70 70 70 64 61 67 73 64 58 62 62 60 62 64 68 70 62 69 75 76 84 79 75 82 80 82 82
75 88 89 86 84 79 77 77 74 66 74 68 70 75 76 64 72 74 81 85 84 90 89 82 79 74 81 81 72 64 63 54 60 63 70 62 69 62 66 65 65 63 68 81 82 80 81 83 81 79 76 82 80 80
87 84 79 78 77 75 72 78 76 74 72 77 79 70 71 71 72 83 80 92 88 89 92 92 84 74 68 60 65 66 63 51 53 67 59 57 62 76 74 74 73 78 71 80 80 80 76 77 79 77 79 74 80 80
82 85 72 61 64 66 77 75 66 73 80 83 76 75 72 76 82 82 82 84 79 87 80 81 72 70 67 64 62 61 60 62 64 59 58 58 62 64 75 82 84 78 74 76 80 80 80 79 79 79 81 78 80 82
74 73 87 80 79 72 78 75 76 78 78 68 66 81 81 80 86 88 79 82 84 75 74 73 72 69 74 75 74 73 72 73 76 66 68 68 65 70 73 78 76 73 76 80 78 79 79 81 81 81 81 82 84 80
78 71 69 87 76 77 81 79 80 73 70 80 77 77 79 78 79 84 84 81 76 77 83 84 83 80 79 76 78 77 76 79 73 69 67 75 78 86 73 75 75 76 77 78 76 76 76 81 82 81 79 82 80 80
80 71 75 78 82 85 90 80 87 84 69 72 69 69 73 79 88 76 78 82 85 88 87 84 83 86 85 87 83 80 82 82 84 87 86 86 88 79 79 80 80 80 80 80 79 74 78 79 80 82 83 82 80 82
68 70 70 72 83 85 86 86 84 81 82 88 82 83 83 85 81 78 78 79 80 81 83 84 83 80 80 80 81 76 89 87 82 79 81 80 76 80 81 79 80 80 80 81 80 81 81 81 81 82 80 80 81 82
78 74 78 81 86 85 93 93 81 84 85 83 87 82 88 85 85 85 81 83 83 86 93 80 83 87 81 79 80 85 86 77 77 78 74 79 82 82 79 78 83 82 80 80 80 82 82 80 83 83 84 81 83 84
81 80 77 81 86 82 83 76 71 78 77 78 82 80 86 86 88 90 76 81 92 88 82 87 84 83 79 77 77 79 81 81 88 88 91 92 91 91 87 81 82 84 81 82 81 82 81 79 82 82 83 85 85 85

GFSWCAN_sfc_rhum_039.txt.gz
RH
84 84 85 86 89 90 90 88 88 89 88 87 88 88 87 85 81 89 89 89 93 98 90 72 63 59 52 55 69 63 69 67 82 86 87 91 95 80 66 61 81 89 95 99 99 94 85 54 37 38 44 38 32 33
87 88 91 93 93 92 89 88 90 90 89 87 85 85 86 86 86 84 98 88 89 98 97 75 67 62 48 42 54 60 56 63 76 80 82 86 87 81 55 63 67 92 77 90 87 90 68 49 56 60 51 47 42 36
91 94 93 88 89 91 88 90 92 92 90 86 84 83 84 87 89 87 93 95 94 93 96 97 86 74 63 65 65 88 68 67 89 86 92 84 75 80 87 80 78 61 63 78 64 55 58 50 55 54 67 57 45 32
94 93 90 90 92 88 90 90 92 92 92 88 90 90 89 90 89 86 90 92 88 91 100 96 73 71 63 61 66 74 68 70 81 84 86 96 92 64 88 65 74 69 64 70 71 56 52 46 59 66 68 60 54 47
95 91 91 93 91 91 92 92 90 86 89 87 88 90 91 88 88 84 95 89 93 94 97 96 77 62 60 63 74 74 82 82 95 92 97 84 81 83 83 78 74 52 68 83 88 60 62 52 57 58 54 72 60 52
92 91 91 91 93 92 91 94 92 89 87 87 88 89 90 89 83 96 100 92 93 98 91 100 72 66 59 61 78 80 88 85 96 96 96 80 60 78 88 83 54 41 42 41 48 50 42 40 43 47 48 50 48 46
95 91 92 93 95 92 89 89 88 91 88 88 89 86 85 84 89 94 95 92 89 93 89 93 93 86 77 64 72 83 81 90 95 94 96 85 77 78 95 91 86 80 68 55 60 61 62 58 60 53 51 49 53 47
96 94 94 94 94 92 92 87 88 87 87 85 84 93 92 88 85 83 84 80 81 80 80 94 98 92 90 92 88 84 91 90 95 97 94 90 76 88 98 87 82 80 77 74 70 64 64 59 56 55 52 54 55 57
96 94 92 90 93 92 94 88 90 92 93 91 90 89 95 95 96 87 79 78 89 84 94 96 96 100 95 95 90 91 91 96 85 98 95 92 98 98 97 92 93 88 89 83 72 71 68 72 69 60 63 68 69 75
95 94 91 91 91 90 91 90 91 88 86 80 83 91 98 94 81 77 74 81 83 86 90 97 94 100 98 99 99 96 98 96 98 91 89 96 99 98 94 90 86 87 84 78 88 93 88 87 81 91 88 83 82 82
92 92 92 91 90 88 86 86 84 80 85 90 96 99 90 84 91 92 91 88 82 93 94 92 95 99 96 100 100 97 98 98 92 90 89 99 95 92 75 90 93 86 88 92 79 83 85 88 92 94 94 92 91 89
92 92 91 90 89 90 92 92 90 95 94 90 87 88 91 86 94 88 97 93 93 94 95 97 97 96 99 96 99 99 94 98 97 97 93 97 96 91 86 88 88 88 87 88 86 91 91 91 91 94 95 94 93 92
90 87 88 89 90 90 87 86 85 85 86 89 89 97 98 99 97 94 85 94 99 99 100 100 100 100 99 99 100 98 99 99 99 97 96 96 91 87 90 88 90 91 90 88 89 87 87 89 90 90 92 94 92 94
88 87 87 88 86 83 85 82 80 82 89 94 96 94 95 95 98 98 98 99 99 100 98 99 100 100 100 100 100 98 100 99 97 96 96 96 96 96 96 95 90 95 95 95 95 95 95 95 96 95 96 96 93 95
87 86 86 89 85 86 77 78 74 75 85 90 87 97 96 98 96 98 98 99 99 99 99 100 100 100 100 98 99 98 97 96 95 97 97 97 97 96 96 96 96 96 96 96 95 95 95 94 93 95 96 95 95 95
83 82 92 80 76 76 76 73 75 82 89 86 91 95 94 95 95 96 97 98 96 99 99 100 99 98 98 96 91 97 88 96 97 98 98 96 96 96 97 96 96 96 95 95 95 94 93 94 94 96 95 95 95 93
82 92 89 78 76 69 75 84 90 93 91 90 98 97 99 97 98 98 98 96 97 99 99 98 95 98 92 94 94 95 97 97 97 97 96 97 96 97 96 95 95 94 94 95 92 91 95 93 83 83 91 94 92 94
93 94 87 87 90 86 78 89 94 83 92 97 97 97 96 98 96 97 98 92 94 93 90 95 85 93 98 96 97 97 96 96 96 96 96 96 96 96 95 95 95 94 93 93 91 89 90 89 89 93 93 92 88 87
95 93 84 80 84 85 96 98 82 92 97 97 90 91 96 96 93 93 94 86 80 76 84 82 90 95 96 96 96 97 97 95 95 95 95 96 96 96 95 94 94 94 93 93 90 91 90 90 90 90 90 83 90 94
88 83 83 77 79 89 97 97 83 89 97 97 90 92 93 96 94 84 80 76 69 72 86 93 96 96 96 96 96 95 95 96 92 92 94 94 93 90 94 92 92 88 82 82 84 80 80 84 82 79 84 88 92 94
89 87 79 75 85 92 99 99 98 96 97 96 87 94 96 79 82 83 80 64 79 90 94 95 96 96 95 95 94 90 94 91 95 92 92 93 95 90 88 84 80 79 84 87 89 89 91 93 89 92 93 95 94 93
82 73 94 83 90 86 90 85 91 90 90 86 85 86 92 91 89 82 69 82 93 95 93 93 94 92 91 93 94 92 92 89 88 89 88 84 90 90 90 88 84 90 90 92 92 96 95 88 90 90 92 96 94 92
74 79 94 92 88 86 91 85 86 81 89 90 90 88 93 95 85 76 93 89 96 92 90 89 91 89 92 87 80 84 79 76 81 82 84 84 84 87 87 87 90 94 93 88 87 92 94 91 93 94 92 90 94 95
77 96 96 98 90 100 91 89 87 85 86 88 86 89 94 94 85 91 94 94 96 94 94 92 78 78 76 77 80 80 78 76 82 92 90 81 83 82 80 83 87 89 92 88 91 96 95 97 96 95 94 94 95 100
80 89 91 92 92 87 89 88 88 87 91 87 89 94 92 90 92 94 93 97 96 97 96 93 88 87 92 92 89 84 80 72 80 82 82 81 92 82 85 84 88 88 91 96 97 97 100 97 94 97 97 98 95 98
94 88 91 88 92 89 91 91 89 89 90 93 95 88 93 92 93 99 94 98 98 98 97 97 94 88 82 78 86 88 81 70 72 86 80 79 87 98 97 98 98 99 94 98 100 98 99 98 98 97 99 98 99 100
95 95 87 78 91 90 92 91 89 92 95 97 92 91 90 96 100 98 97 96 98 98 94 92 88 86 87 86 84 88 89 86 86 79 83 81 84 86 93 100 100 96 98 96 100 100 100 100 100 100 99 98 99 99
87 87 96 93 90 85 92 93 95 96 97 92 92 96 99 99 100 98 99 96 94 92 90 89 88 91 92 92 94 95 98 96 92 90 88 91 94 96 98 97 96 94 97 97 97 98 98 100 100 100 100 100 100 98
94 92 88 92 89 92 94 96 98 94 84 94 96 98 99 98 97 96 97 93 94 93 97 98 98 98 98 96 95 96 96 96 92 90 94 100 100 99 99 98 98 98 98 99 97 94 93 97 100 98 96 98 98 100
94 92 90 91 94 98 98 98 96 96 90 95 93 83 90 96 97 96 96 97 96 98 98 98 98 98 98 97 100 100 100 100 100 100 100 100 100 100 99 99 100 100 99 100 100 97 98 99 99 97 99 99 100 98
93 92 87 91 97 97 97 95 87 86 89 92 92 92 98 99 97 95 97 97 97 97 96 98 99 98 97 99 100 100 100 100 97 96 97 100 100 99 100 100 100 100 100 100 99 100 100 100 100 100 100 99 98 100
94 92 92 96 98 98 97 97 96 97 98 97 98 98 99 98 100 99 98 98 98 99 99 97 97 100 100 100 100 100 98 100 100 100 100 100 100 100 100 100 100 99 100 100 100 100 100 100 100 100 100 100 99 99
88 86 93 96 99 99 98 97 92 97 96 96 98 97 98 98 100 99 96 97 98 97 97 98 99 99 97 98 96 96 99 100 100 100 100 100 100 100 100 100 100 100 100 100 100 100 100 100 100 100 100 100 100 100

GFSWCAN_sfc_rhum_042.txt.gz
RH
81 83 86 86 85 84 85 87 87 87 88 88 87 87 87 86 84 91 90 92 95 99 92 88 70 69 64 63 72 68 71 76 86 83 88 87 95 84 76 70 87 86 95 98 94 98 94 65 59 64 70 70 62 58
86 87 87 87 90 92 91 91 91 90 90 89 87 86 88 87 86 86 97 92 87 95 95 91 86 71 61 47 54 65 63 65 73 86 88 90 90 93 82 88 70 83 75 86 83 76 68 68 69 58 66 76 71 68
88 89 93 93 93 89 90 91 90 90 88 88 89 84 88 87 86 88 95 96 95 96 94 93 91 66 63 72 42 74 77 66 85 83 91 87 76 88 90 76 56 58 65 81 85 60 61 58 59 66 57 64 64 60
93 95 94 92 91 92 91 93 92 93 93 90 89 89 89 88 87 90 97 92 84 92 98 92 78 86 69 69 76 73 68 81 80 92 89 94 91 70 85 62 80 72 70 71 73 60 56 52 50 60 51 67 66 57
97 93 90 89 90 91 90 92 90 92 91 90 90 88 88 91 90 94 95 86 82 84 94 97 82 75 70 69 74 82 81 80 96 96 98 92 90 83 89 84 77 77 80 87 81 52 51 48 46 53 50 61 65 65
89 88 90 89 90 91 93 88 90 89 90 87 86 84 84 85 92 95 99 92 81 96 94 99 86 84 79 76 77 85 90 94 94 96 97 91 72 69 91 89 88 86 83 82 85 74 63 57 47 55 55 53 62 61
91 90 93 93 91 91 92 91 92 90 90 92 91 90 89 91 92 95 95 92 83 97 99 99 99 87 86 82 93 92 91 98 96 96 99 92 85 74 96 98 87 83 83 81 75 74 73 68 70 62 57 55 56 52
94 94 94 94 91 91 90 90 91 92 91 91 90 88 88 89 89 93 96 84 86 98 89 95 99 96 89 93 93 96 94 94 95 97 97 96 89 96 97 96 85 84 83 82 81 77 80 76 70 74 71 69 74 75
93 94 94 93 90 92 91 88 88 88 88 89 85 88 92 95 98 97 85 90 90 91 94 96 97 99 94 99 94 93 93 96 95 99 98 96 96 97 95 89 88 88 95 93 78 82 80 86 85 82 78 77 78 79
94 94 96 92 92 91 91 88 86 93 91 88 92 96 99 100 92 90 86 84 83 88 93 98 96 99 96 100 100 96 99 98 96 96 96 98 98 92 90 93 92 91 94 94 95 94 93 93 92 91 90 85 84 84
93 92 92 92 92 92 91 89 89 86 88 93 97 99 92 86 89 89 93 88 87 93 95 97 96 97 96 97 99 98 98 99 94 93 95 97 94 92 84 84 86 85 86 91 94 97 96 92 92 93 93 91 89 88
90 90 90 89 90 89 88 86 86 94 98 91 88 91 91 92 91 89 96 93 93 97 98 98 98 98 100 96 99 99 93 95 98 95 94 95 95 90 86 87 87 87 85 85 83 87 89 88 91 89 89 90 91 90
90 91 91 90 90 88 85 83 84 83 88 91 92 94 90 93 89 93 87 97 98 99 99 100 100 100 99 99 100 98 89 98 96 93 98 95 91 85 89 86 90 90 87 89 91 90 86 89 89 91 92 95 92 93
89 89 87 87 83 83 81 76 79 78 87 89 88 92 93 96 98 98 98 98 99 99 98 99 99 100 100 100 100 98 99 92 95 95 95 95 94 94 94 93 86 94 94 95 95 95 95 94 96 96 95 96 94 95
89 87 74 79 82 73 72 76 70 78 85 91 86 98 96 98 97 98 98 99 99 99 99 99 100 100 99 98 98 94 94 97 94 98 98 97 97 96 96 96 96 96 96 96 96 95 96 95 94 95 96 95 95 95
83 82 88 80 79 80 74 75 84 87 90 88 92 96 95 95 94 97 97 98 98 98 99 99 99 98 98 96 90 97 88 96 98 97 97 96 96 96 96 96 96 96 96 96 96 95 95 94 94 95 93 93 93 91
85 95 86 91 73 74 77 90 86 86 94 92 97 99 100 100 99 98 98 96 97 99 98 97 95 97 94 94 91 92 97 96 97 96 96 96 96 96 96 94 94 94 94 94 93 92 94 91 83 83 91 92 89 90
98 96 91 89 91 83 81 89 86 87 96 98 98 97 98 98 97 97 96 88 96 97 94 95 88 94 96 94 96 97 96 96 96 95 95 95 95 95 95 95 95 95 94 94 92 91 89 88 88 92 91 85 84 84
96 96 92 90 86 91 92 93 82 94 98 98 94 88 97 96 91 88 86 81 75 77 85 87 91 95 97 94 95 96 96 92 94 95 94 96 95 95 95 94 93 93 92 92 87 84 83 88 90 89 88 86 93 92
91 83 85 86 82 91 94 98 86 90 96 96 95 92 92 94 82 81 79 71 68 78 89 94 96 97 96 96 90 94 95 93 89 91 94 94 94 92 94 92 90 86 82 85 88 85 85 85 82 86 91 92 94 96
87 84 80 79 91 96 98 98 98 97 96 93 90 89 91 74 78 81 78 62 75 94 95 96 96 96 94 95 91 90 94 90 95 89 91 93 92 84 84 84 84 84 89 92 94 96 93 95 95 93 95 100 99 95
81 74 94 86 89 84 88 90 95 94 89 92 94 90 95 92 89 82 69 80 93 96 95 94 95 89 90 93 94 90 91 88 88 88 86 86 92 92 95 96 93 95 95 97 97 100 99 94 92 92 96 100 96 96
78 84 92 83 86 83 88 85 89 92 93 94 90 88 93 94 90 76 96 91 96 95 88 86 88 85 91 90 87 83 79 79 88 90 92 93 93 97 95 96 96 97 96 96 91 94 98 95 94 96 98 97 99 100
76 95 98 98 92 100 90 90 88 84 86 88 90 96 95 93 85 91 95 94 96 94 87 84 76 80 80 84 91 88 84 83 92 96 94 85 90 93 92 95 95 95 96 91 94 97 96 100 98 94 97 98 100 100
80 88 87 90 92 86 91 91 92 87 96 94 96 99 94 91 96 98 98 97 97 98 99 92 86 89 96 98 96 96 86 80 89 93 95 87 92 90 93 94 96 95 96 97 100 100 100 100 100 100 99 100 99 100
97 94 92 95 95 90 95 96 95 95 97 96 97 94 92 94 95 100 98 98 97 99 100 99 94 95 94 89 94 94 96 77 78 92 92 88 93 99 100 100 100 100 98 100 99 100 100 100 100 100 100 100 100 100
94 94 93 78 97 91 94 93 91 94 97 99 98 98 93 100 100 99 98 99 98 98 99 98 92 92 94 93 88 91 91 89 89 89 92 84 84 89 94 99 100 98 99 99 100 100 100 100 100 100 100 100 100 100
96 90 94 95 92 92 96 98 99 100 100 93 87 100 99 100 99 98 100 98 97 93 95 95 94 94 96 97 98 98 98 97 93 92 92 95 98 100 100 100 99 100 100 100 100 100 99 100 100 100 100 100 100 100
97 96 87 97 95 97 99 100 100 97 92 96 99 100 99 98 99 98 99 96 96 92 97 98 100 99 97 96 98 100 100 99 99 100 100 100 100 99 100 100 100 100 100 100 100 100 99 100 100 100 100 100 99 100
95 94 92 98 98 100 99 99 100 99 95 98 96 86 91 96 96 98 98 96 98 100 100 100 99 98 100 100 100 99 100 100 100 96 100 100 100 100 100 100 100 100 100 100 100 99 100 100 100 99 99 99 100 100
93 92 94 97 99 99 99 99 88 87 95 96 99 98 99 98 97 97 97 99 99 98 97 100 100 100 99 100 100 100 100 100 99 100 100 100 100 100 100 100 100 100 100 100 100 100 100 100 100 100 100 100 100 100
96 98 96 99 99 98 99 100 100 100 100 100 100 100 100 100 100 100 98 100 99 100 100 100 100 100 100 100 100 100 100 100 100 100 100 100 100 100 100 100 100 100 100 100 100 100 100 100 100 100 100 100 100 100
94 92 99 100 99 100 99 96 99 99 99 100 99 99 100 98 100 98 98 100 100 98 100 100 100 100 100 100 99 100 100 100 100 100 100 100 100 100 100 100 100 100 100 100 100 100 100 100 100 100 100 100 100 100

GFSWCAN_sfc_rhum_045.txt.gz
RH
84 88 87 86 85 86 87 88 87 85 84 83 84 85 86 85 85 90 91 95 96 100 94 86 81 72 72 72 85 76 75 79 88 91 95 96 97 80 76 80 89 91 96 96 90 99 92 56 78 78 82 69 73 68
87 87 89 86 86 86 87 88 87 88 88 87 86 86 89 89 86 86 95 93 93 98 96 82 79 72 74 53 58 65 63 76 69 87 96 93 95 96 83 87 76 88 78 90 84 81 64 72 72 66 65 72 71 75
90 89 86 86 90 92 93 92 92 91 90 91 89 89 88 88 88 89 96 97 97 99 98 96 86 73 70 69 51 76 78 66 82 84 93 89 88 90 91 89 75 72 69 80 82 55 54 50 55 60 60 71 61 61
86 86 90 91 94 91 91 92 91 90 90 89 90 90 89 86 85 89 97 95 88 98 100 91 74 67 65 73 71 79 68 81 84 91 91 93 97 75 89 67 78 63 67 72 67 60 59 50 57 59 61 62 62 62
92 94 94 91 88 89 90 90 92 92 92 92 89 87 86 86 87 90 95 92 80 79 92 91 90 79 66 74 76 79 81 78 90 90 98 92 87 84 92 83 81 93 89 96 88 86 90 69 55 60 63 55 57 67
90 88 88 90 89 91 88 88 87 90 89 91 92 88 85 86 87 98 100 96 79 93 88 100 91 90 82 83 79 80 78 88 91 93 97 95 76 82 94 98 86 81 80 83 92 84 85 81 71 68 68 67 64 67
87 90 90 89 91 94 94 91 89 91 89 91 91 88 89 88 95 96 94 95 79 88 94 99 99 95 87 86 88 93 92 93 92 89 98 96 93 89 93 96 85 80 79 82 84 85 90 82 86 72 73 73 66 66
93 93 93 92 91 93 92 93 94 91 88 88 91 94 90 86 90 96 98 80 84 96 96 99 99 99 92 99 97 97 99 98 96 97 97 98 97 96 96 87 81 78 84 83 88 79 84 83 79 77 73 72 75 77
95 94 95 93 91 92 92 92 92 92 91 92 88 87 90 95 98 100 83 82 96 96 99 99 98 99 98 99 98 99 96 99 96 100 98 96 98 96 95 91 87 87 94 94 92 81 83 88 86 85 83 83 84 84
95 94 94 93 90 87 89 92 86 90 89 86 90 95 100 99 92 87 95 99 99 99 96 99 95 99 95 99 100 97 99 98 99 97 93 97 98 93 88 85 89 92 97 93 96 94 95 93 90 91 90 85 84 85
94 91 93 91 90 89 90 88 87 88 89 94 98 100 98 95 98 98 99 99 99 97 95 96 96 99 95 97 99 98 99 98 97 98 94 98 93 89 88 86 89 91 90 94 96 94 90 88 87 86 88 86 86 86
89 90 91 90 89 87 87 86 88 94 98 90 90 91 91 88 88 90 97 94 93 95 96 99 100 95 100 96 98 97 97 94 99 98 91 94 94 88 93 91 92 94 94 93 89 89 91 88 88 90 88 89 91 93
87 88 88 87 85 83 82 83 83 84 88 88 84 81 82 89 89 93 90 97 98 99 98 99 97 100 99 98 99 97 94 99 89 96 94 96 90 85 86 82 85 86 89 90 91 91 87 89 90 92 92 95 94 94
79 82 86 82 81 78 76 74 70 71 81 88 86 93 93 95 98 98 98 98 99 99 98 99 99 100 99 99 100 97 98 88 96 97 99 96 94 94 92 91 85 94 93 92 94 93 94 94 95 95 95 95 94 95
81 80 77 86 78 74 72 74 69 78 84 90 85 99 97 97 98 98 98 98 98 99 99 99 100 97 98 97 97 94 94 98 95 98 98 97 96 94 94 94 94 95 95 95 95 93 94 94 94 95 95 95 94 94
81 83 91 76 78 74 73 73 79 84 88 88 91 94 95 96 96 96 97 97 97 97 99 99 98 96 98 96 89 97 89 99 98 98 97 94 95 96 96 95 96 96 96 96 96 95 95 95 95 95 94 94 94 93
85 97 92 76 71 70 72 83 83 87 94 91 98 96 99 98 98 98 98 96 97 98 98 96 94 98 92 92 92 92 98 97 96 96 96 96 95 96 96 96 96 95 95 94 92 91 94 92 84 84 90 92 88 90
99 98 94 90 87 86 89 85 88 87 96 98 98 97 98 98 97 97 97 96 97 97 96 96 85 93 98 96 98 97 96 96 96 95 95 96 96 96 95 95 95 93 93 92 90 90 89 88 89 92 89 86 86 86
97 96 89 86 84 89 88 90 82 94 99 98 95 91 96 96 84 86 86 82 78 78 84 83 93 94 97 95 95 96 96 94 94 95 94 96 96 95 94 92 91 92 91 90 86 87 89 92 93 91 90 87 94 93
88 88 85 83 81 89 93 98 85 87 98 98 95 90 89 92 83 81 79 68 67 77 88 94 96 97 95 96 94 95 95 93 88 92 94 94 92 90 94 91 91 88 86 86 89 86 85 89 89 91 94 93 95 98
83 82 81 85 96 88 95 97 97 94 95 91 90 89 86 73 80 82 80 67 76 95 95 96 96 96 95 95 92 92 94 90 92 91 92 94 92 86 86 87 87 87 91 95 96 97 95 98 97 93 98 100 100 98
83 78 94 85 89 88 88 94 94 96 90 88 94 88 92 95 96 93 78 86 95 96 96 95 95 91 91 93 94 90 90 88 90 90 89 86 93 95 98 99 92 98 98 100 97 100 100 94 97 98 99 100 98 99
77 83 89 82 84 86 95 88 94 95 93 94 88 84 90 96 94 80 98 93 96 95 93 90 92 85 91 90 88 86 82 82 92 94 96 96 96 98 97 97 98 99 98 97 95 97 100 96 98 99 100 100 100 100
72 92 98 93 89 99 91 91 87 82 89 93 94 99 96 96 85 93 98 97 97 93 90 92 81 86 85 88 94 94 91 85 90 96 92 91 96 96 94 96 97 98 97 90 96 100 98 100 100 99 100 100 100 100
84 91 86 90 92 87 91 92 92 89 97 97 95 98 96 92 97 100 100 99 98 99 98 91 89 90 98 100 98 96 89 87 93 97 98 90 96 94 96 94 97 94 94 98 100 100 100 100 100 100 100 100 100 100
94 97 94 98 97 92 96 99 97 98 98 99 98 94 93 94 96 100 98 99 97 99 100 99 97 97 97 92 96 96 98 81 83 96 92 90 89 97 100 100 100 100 99 100 100 100 100 100 100 100 100 100 100 100
90 97 90 75 93 90 96 94 91 94 98 99 98 96 93 100 100 98 97 98 98 99 98 98 95 92 94 95 92 95 94 93 92 88 92 84 87 91 95 100 100 99 100 100 100 100 100 100 100 100 100 100 100 100
97 90 96 96 95 94 99 100 100 100 99 92 87 99 100 99 99 98 99 98 97 97 97 98 96 96 98 99 99 97 99 99 97 96 95 96 98 100 100 100 100 100 100 100 100 100 100 100 100 100 100 100 100 100
97 99 89 100 96 97 98 100 100 97 93 99 99 100 100 98 99 99 98 98 97 93 96 98 100 100 97 96 99 100 100 100 100 100 100 100 100 100 100 100 100 100 100 100 100 100 100 100 100 100 100 100 100 100
94 96 96 99 99 100 100 100 100 99 97 99 97 85 91 97 97 98 96 96 96 99 100 99 100 96 99 96 100 98 100 100 100 99 100 100 99 99 100 100 100 100 100 100 100 99 100 100 100 100 100 100 100 100
93 95 95 97 99 100 98 100 92 88 97 97 100 97 100 99 98 96 97 99 100 99 99 100 100 100 100 100 100 100 100 100 100 100 100 100 100 100 100 100 100 100 100 100 100 100 100 100 100 100 100 100 100 100
95 98 97 100 99 98 98 100 100 100 100 100 100 100 100 99 100 98 98 98 99 100 100 100 100 99 100 100 100 100 100 100 100 100 100 100 100 100 100 100 100 100 100 100 100 100 100 100 100 100 100 100 100 100
98 98 100 100 100 100 99 97 100 100 100 100 100 100 100 100 100 97 98 100 99 98 100 100 100 100 100 100 100 100 100 100 100 100 100 100 100 100 100 100 100 100 100 100 100 100 100 100 100 100 100 100 100 100

GFSWCAN_sfc_rhum_048.txt.gz
RH
79 80 81 82 83 86 88 89 82 86 87 85 86 88 90 88 89 95 96 94 97 100 95 86 76 84 91 85 97 78 84 88 98 99 97 96 98 84 80 85 93 91 96 93 88 98 89 58 79 69 63 70 69 65
86 85 86 89 88 88 89 86 85 87 88 88 88 85 83 81 82 87 99 96 95 98 97 85 80 67 63 61 60 66 70 81 79 94 96 94 96 96 83 92 85 90 81 90 84 79 66 72 75 71 69 72 70 74
85 85 86 87 89 86 83 87 89 92 90 88 87 86 85 86 85 85 96 95 98 99 99 99 91 68 73 77 68 80 78 68 79 84 95 92 86 93 92 92 81 82 70 86 82 63 61 57 58 59 64 69 65 58
88 91 90 90 88 86 87 91 92 91 92 91 91 90 88 85 84 86 97 95 89 98 100 95 77 77 68 67 73 78 68 80 82 88 89 95 94 79 91 73 82 70 73 77 69 60 71 53 70 80 70 65 63 62
90 90 90 94 92 93 90 87 88 89 89 89 89 88 89 88 88 93 97 94 74 79 96 91 89 75 60 78 75 77 77 82 92 95 98 92 91 86 92 88 85 93 93 92 86 97 94 91 82 77 78 83 77 68
89 86 86 86 88 88 88 91 88 89 91 91 91 87 86 88 88 98 100 97 78 91 92 98 87 92 80 66 71 78 80 92 88 96 95 90 81 78 96 100 93 86 78 80 92 86 92 87 83 74 75 72 71 73
90 90 90 91 94 92 91 89 87 88 90 91 91 88 86 83 94 98 95 95 82 87 98 97 96 93 90 89 89 89 86 95 95 94 97 94 93 89 98 99 93 89 93 87 80 86 89 85 91 77 74 71 69 66
93 91 94 96 92 95 95 94 90 91 92 91 90 86 87 88 95 98 98 85 79 96 97 100 99 99 92 99 95 96 98 94 97 99 98 95 98 97 99 90 83 75 77 81 86 84 85 82 78 79 74 73 77 80
96 93 94 96 94 93 92 91 89 95 92 90 88 88 94 97 99 99 84 84 94 95 99 99 98 99 96 98 98 98 97 99 97 100 98 93 98 98 97 92 87 87 86 90 84 87 81 84 84 82 81 83 85 85
93 93 93 95 92 93 94 93 89 90 86 87 88 95 100 99 86 86 93 98 98 98 99 100 99 100 97 100 100 99 99 99 99 99 98 97 97 92 90 91 94 90 85 86 88 90 90 88 88 87 87 83 82 83
91 91 91 91 90 88 90 92 89 85 85 96 98 99 98 93 96 98 99 98 100 99 100 99 99 100 99 99 99 99 99 99 98 100 93 97 95 90 88 81 84 84 83 87 92 94 90 89 87 84 87 84 84 83
90 88 88 87 84 85 86 85 90 94 98 93 94 95 93 96 97 98 98 99 99 96 99 99 100 98 99 95 98 98 98 96 97 97 94 96 95 92 93 86 86 92 91 91 91 93 94 90 92 86 90 90 91 92
85 83 82 80 80 79 78 84 78 87 87 83 81 83 80 89 89 93 97 97 98 98 98 99 99 100 98 98 99 95 96 98 92 95 95 96 88 82 86 88 89 91 92 91 92 91 90 91 88 91 92 95 94 94
82 85 81 78 78 77 73 65 67 71 81 85 86 94 92 96 98 98 98 98 98 99 98 99 97 99 100 98 99 96 98 88 95 96 98 95 92 91 93 92 86 95 93 94 95 94 95 94 95 95 95 95 93 94
86 79 74 81 79 71 65 68 65 79 85 90 84 99 97 97 98 98 98 98 98 98 99 99 98 95 98 96 96 93 92 100 97 99 98 97 96 95 95 96 95 95 95 95 95 94 95 94 94 95 95 95 94 94
83 81 82 75 71 68 64 69 78 82 86 86 90 94 95 96 95 96 97 98 97 97 99 98 98 94 98 96 89 99 91 99 98 99 97 95 95 96 96 96 96 96 95 95 95 94 94 95 95 95 94 94 94 94
85 98 94 90 84 73 68 80 81 84 92 91 98 97 98 98 98 98 98 96 96 98 98 95 94 98 86 92 93 94 99 98 97 97 96 96 96 96 96 95 95 95 95 95 94 94 95 95 89 85 91 92 88 91
99 97 86 84 82 82 86 84 86 83 95 98 97 97 98 98 97 97 97 96 97 96 96 96 80 92 98 93 97 97 96 96 96 95 95 96 95 95 95 95 95 94 94 94 94 92 89 88 87 91 89 84 85 86
96 91 89 85 81 86 86 89 78 94 100 98 97 96 97 97 95 95 95 93 84 80 83 86 92 96 98 97 95 96 96 93 95 95 94 96 95 95 95 94 93 93 91 90 87 89 90 91 92 91 90 87 94 94
89 84 82 83 77 90 92 97 82 81 97 97 94 94 88 91 86 84 81 71 66 75 88 93 96 97 96 96 95 95 95 94 90 93 94 94 93 91 94 91 92 91 87 85 89 87 86 89 90 91 93 93 96 100
84 83 83 88 96 89 94 94 94 90 93 84 85 86 88 75 81 85 83 68 77 94 95 96 96 96 95 95 92 90 92 88 94 91 92 94 94 89 90 88 86 87 91 94 96 97 96 99 97 92 97 100 100 100
87 79 93 82 90 84 88 93 94 94 87 88 90 82 90 96 97 95 85 89 95 96 96 94 95 90 90 93 94 91 92 89 91 90 89 86 92 94 98 99 92 98 97 100 98 100 100 97 98 99 100 100 98 99
77 81 90 82 85 89 98 97 96 92 95 98 88 78 92 96 95 80 97 92 96 95 94 91 91 84 91 93 88 89 87 84 91 94 96 97 97 100 98 98 98 99 100 98 95 96 100 97 99 100 100 100 100 100
70 88 94 94 88 99 91 93 86 84 89 93 95 99 93 96 84 92 97 96 96 93 91 94 83 84 83 87 94 95 91 87 93 98 94 92 97 98 96 98 98 98 97 94 94 99 99 100 100 100 100 100 100 100
82 92 87 93 94 87 94 95 95 92 99 98 96 99 97 92 97 100 100 98 97 98 98 92 90 90 99 100 99 98 94 88 92 96 99 92 97 95 97 96 98 98 99 100 100 100 100 100 100 100 100 100 100 100
95 98 95 99 98 93 97 100 98 98 98 100 100 94 94 95 96 100 99 100 97 100 100 100 97 96 96 93 96 98 98 87 88 98 95 96 90 98 100 100 100 99 99 100 100 100 100 100 100 100 100 100 100 100
98 99 89 76 92 90 96 96 92 94 99 100 99 97 94 100 100 99 98 99 100 100 98 98 96 95 97 98 95 97 96 92 91 91 93 89 90 92 96 99 100 99 100 100 100 100 100 100 100 100 100 100 100 100
97 90 93 97 96 92 99 99 100 100 99 92 88 99 99 98 98 98 99 98 98 96 97 98 96 96 97 98 99 96 99 99 96 95 95 96 99 100 100 100 100 100 100 100 100 100 100 100 100 100 100 100 100 100
98 98 89 100 95 97 99 100 100 96 92 98 99 100 100 97 98 99 98 98 95 93 97 99 100 100 100 99 100 100 100 100 98 100 100 100 100 99 100 100 100 100 100 100 100 100 100 100 100 100 100 100 100 100
97 97 97 98 99 100 100 100 100 99 96 99 97 87 93 97 97 97 97 97 97 98 100 100 99 96 97 97 100 99 100 100 100 99 100 100 98 100 100 100 100 100 100 100 100 100 100 100 100 100 100 100 100 100
94 97 97 97 99 98 98 99 93 90 99 98 100 98 100 99 98 97 98 100 100 100 100 100 100 100 100 100 100 100 100 100 100 100 100 100 100 100 100 100 100 100 100 100 100 100 100 100 100 100 100 100 100 100
99 100 96 100 100 99 99 100 100 100 100 100 100 100 100 99 100 98 99 99 100 100 100 100 100 100 100 100 100 100 100 100 100 100 100 100 100 100 100 100 100 100 100 100 100 100 100 100 100 100 100 100 100 100
99 98 100 100 100 100 100 97 100 100 100 100 100 100 100 100 100 98 98 100 99 99 100 100 100 100 100 100 100 100 100 100 100 100 100 100 100 100 100 100 100 100 100 100 100 100 100 100 100 100 100 100 100 100

GFSWCAN_sfc_rhum_051.txt.gz
RH
93 92 89 85 81 80 80 81 82 81 81 86 90 89 85 81 81 90 95 94 97 100 95 75 65 82 88 98 97 81 94 95 99 97 91 86 89 74 63 72 75 71 78 84 82 94 84 47 63 64 48 55 54 51
88 87 84 89 86 83 84 83 84 87 89 87 81 88 86 84 84 85 98 94 94 99 97 82 73 69 64 70 74 80 71 84 87 86 86 80 89 89 70 73 75 79 70 74 72 67 56 55 60 58 60 64 60 60
90 90 83 81 83 84 86 88 88 91 89 86 84 86 85 85 85 91 97 96 98 100 99 97 94 77 72 72 68 85 74 72 79 78 88 85 81 81 86 78 70 71 65 71 69 52 51 48 51 72 66 73 69 63
86 88 88 89 90 89 90 90 89 88 90 89 89 85 85 87 85 88 97 96 97 98 100 99 79 81 67 69 81 76 70 80 81 87 91 90 86 68 78 64 72 57 67 70 66 54 62 55 78 77 71 67 66 64
91 94 93 93 91 91 90 90 88 88 90 92 92 89 87 84 81 88 95 94 86 88 95 90 83 71 67 72 75 77 74 77 88 94 100 97 80 83 84 77 70 66 66 77 68 90 89 79 70 75 74 72 67 69
87 88 89 89 90 87 85 88 89 89 88 85 89 89 90 91 87 97 100 97 78 92 98 98 81 82 76 80 80 78 81 83 87 98 99 87 72 79 90 83 82 81 79 79 81 83 81 79 76 73 75 71 68 68
91 92 94 90 89 90 89 89 88 88 89 88 85 85 87 89 95 98 97 94 75 92 99 93 85 84 80 77 85 87 82 91 96 98 99 96 90 82 100 92 87 75 74 74 86 85 83 84 86 74 72 68 66 66
94 95 96 95 95 94 91 90 89 88 88 89 89 84 85 88 90 97 98 84 75 96 97 98 95 98 87 95 95 91 98 96 98 97 98 92 94 97 100 89 77 72 72 74 79 81 93 88 76 74 70 68 72 75
96 95 93 91 92 90 93 92 89 89 87 88 87 86 95 96 99 99 88 88 94 93 98 95 96 94 98 93 94 96 89 100 93 100 99 98 98 98 94 88 85 82 84 84 76 73 82 84 80 78 77 75 77 79
96 94 94 96 93 93 90 94 92 92 91 87 87 96 100 99 90 85 95 94 98 96 98 95 93 99 96 98 100 96 99 100 99 100 92 94 94 91 85 84 84 82 80 80 83 82 81 83 83 84 86 82 79 78
93 93 92 92 91 92 92 92 92 89 85 96 99 99 97 91 96 97 99 97 99 98 94 93 96 97 98 100 98 96 98 99 99 99 94 92 90 88 76 75 78 82 80 86 91 92 91 91 90 90 88 87 88 88
84 82 84 88 92 91 91 86 83 94 97 95 94 92 93 89 97 95 98 97 97 94 100 98 99 99 100 99 100 97 97 97 95 92 87 92 89 80 79 79 80 83 86 88 87 88 90 89 91 91 89 89 90 90
82 80 80 79 88 85 74 82 85 79 76 80 80 78 76 86 88 93 97 96 96 96 96 100 100 100 99 98 100 93 93 96 81 90 91 90 82 75 76 74 82 86 90 86 91 92 90 91 89 90 90 94 91 92
80 82 84 77 74 71 68 73 67 67 78 82 81 90 91 94 96 97 96 97 96 97 97 98 100 98 98 94 95 92 97 83 92 91 93 88 86 86 85 86 81 92 91 92 94 93 94 94 95 95 95 95 92 94
76 76 72 75 74 66 66 65 64 75 80 85 80 98 96 96 96 96 96 96 94 95 98 99 95 90 95 92 92 88 88 95 89 93 93 92 92 90 92 93 94 94 95 95 95 95 95 95 94 95 95 95 94 94
79 82 95 89 68 66 62 68 76 80 84 84 90 94 95 95 96 97 97 96 93 95 96 94 95 93 95 92 86 97 83 93 94 95 93 91 94 94 95 94 95 95 95 95 95 95 95 95 94 95 94 94 95 94
85 95 89 85 74 62 64 77 76 79 89 91 97 97 97 96 97 97 97 94 94 96 97 92 92 98 73 86 91 88 95 95 96 95 93 94 94 95 95 95 94 94 94 94 94 93 93 93 89 84 87 89 83 85
98 94 89 80 78 75 81 79 81 78 95 96 95 97 97 97 97 96 96 95 96 92 89 90 74 88 95 90 94 93 94 96 95 94 94 95 95 95 94 94 94 94 93 93 92 89 86 84 82 83 82 79 78 78
94 92 85 80 77 83 81 84 74 93 100 96 95 94 95 96 93 94 96 95 84 81 79 86 88 90 93 94 95 97 96 94 94 93 93 95 95 94 94 94 93 92 90 87 83 83 84 87 84 79 79 76 84 84
86 84 84 80 73 86 85 90 77 76 92 92 95 94 93 96 95 96 89 80 64 69 84 89 94 95 94 96 94 95 94 92 87 90 91 90 90 90 92 88 86 84 80 81 83 81 78 80 80 80 81 81 87 92
79 86 80 83 90 87 90 88 88 78 86 92 84 83 89 74 81 84 87 70 84 89 92 95 96 96 94 95 93 90 93 86 91 85 86 88 89 83 81 81 80 79 81 85 87 89 88 88 82 81 91 97 97 94
90 74 89 83 84 80 87 90 88 88 81 80 85 69 85 93 96 93 74 87 92 93 93 92 92 88 88 90 92 88 89 86 88 87 86 80 82 83 86 85 79 91 91 92 90 96 93 85 84 85 91 96 91 90
76 80 86 80 89 88 98 96 95 86 92 94 81 76 88 93 91 73 96 88 94 94 91 86 88 82 88 89 86 86 82 80 85 87 90 90 89 93 88 87 86 89 88 83 79 88 93 93 94 93 89 87 89 92
69 88 93 93 90 100 90 94 82 84 89 92 92 96 92 92 78 89 93 91 93 90 88 92 82 83 81 84 89 88 85 80 86 92 85 82 87 90 85 85 85 87 86 76 82 90 92 99 98 94 99 99 99 97
79 91 89 97 93 88 94 95 95 90 100 98 97 98 95 86 94 97 97 94 93 95 94 88 83 83 96 97 93 91 89 76 81 87 91 81 88 85 87 86 90 88 86 93 94 93 97 97 96 94 94 98 95 98
97 97 96 98 98 92 96 100 97 98 97 99 100 90 90 92 93 100 94 98 94 97 97 96 95 92 91 85 90 89 88 76 77 90 88 80 77 88 93 92 90 92 92 94 98 99 99 99 99 98 98 96 100 100
99 99 89 74 88 87 94 94 89 94 100 100 98 96 92 100 100 95 93 93 95 99 91 91 86 85 87 89 87 86 84 82 83 82 83 81 81 79 85 90 91 91 91 92 93 93 95 99 100 100 99 100 100 100
96 90 93 97 95 90 99 99 100 100 97 88 86 99 99 98 95 94 93 93 95 92 93 92 89 86 88 89 90 90 94 94 94 90 87 88 92 96 99 99 98 100 99 98 98 100 100 98 98 100 100 100 100 98
98 96 86 99 95 97 99 100 99 93 90 93 98 100 98 93 96 96 93 92 91 90 95 97 99 98 98 96 99 99 97 93 91 100 100 100 99 94 98 100 99 100 100 97 99 99 98 98 100 100 100 100 100 100
99 96 96 97 99 100 100 98 99 98 92 96 93 84 90 95 95 94 94 94 93 98 99 99 99 94 99 97 100 99 100 100 100 98 100 99 96 95 100 100 100 100 100 100 100 93 99 97 98 99 99 100 100 99
92 95 96 96 100 98 98 100 95 89 98 96 98 99 98 99 97 95 97 99 99 97 94 98 99 98 93 98 96 96 97 100 100 100 99 99 100 100 100 100 100 100 100 100 100 100 100 100 100 100 97 96 97 98
100 100 96 99 100 98 98 100 100 100 100 100 100 100 98 97 100 97 97 97 97 100 100 100 100 100 100 100 100 100 100 100 100 100 97 93 92 98 100 99 100 100 100 100 100 100 97 96 96 95 96 96 96 96
99 98 100 100 100 100 100 97 99 100 100 100 100 100 100 99 99 97 96 97 98 97 99 99 99 100 100 100 100 100 99 100 100 100 100 100 100 100 99 100 100 100 100 100 100 100 96 96 95 95 95 96 95 94

GFSWCAN_sfc_rhum_054.txt.gz
RH
81 86 89 90 91 90 91 83 78 76 76 77 78 78 80 79 77 83 78 80 92 94 93 69 54 61 59 74 92 85 98 98 99 98 77 66 67 48 48 51 63 70 69 73 61 75 78 32 37 46 58 45 42 39
85 89 92 92 91 90 86 89 82 80 80 81 82 83 83 84 83 82 90 77 85 96 96 63 57 52 45 46 74 95 75 86 72 71 61 58 71 70 46 55 45 66 45 50 46 47 42 40 46 43 50 54 54 56
86 91 88 88 85 87 79 86 84 83 84 84 84 83 84 89 88 87 88 81 94 99 99 90 74 58 51 52 58 96 78 69 72 53 76 68 76 53 69 52 42 39 37 53 50 37 35 32 39 54 54 58 52 49
91 88 89 90 92 88 87 85 84 85 85 86 87 88 90 85 90 89 94 91 93 98 99 94 60 66 53 58 62 70 70 66 68 73 76 78 74 46 56 45 49 36 38 47 42 34 31 33 54 60 58 56 54 51
91 91 92 93 88 93 89 89 87 87 87 88 88 87 85 87 86 89 94 94 91 84 96 80 81 68 56 63 68 72 84 82 84 97 100 97 61 65 60 59 48 33 40 52 49 57 61 56 52 62 61 62 57 57
88 91 90 88 89 93 93 91 90 90 88 88 91 88 86 88 90 98 100 98 91 91 96 88 63 74 66 66 69 71 85 90 93 98 99 73 64 75 78 60 39 61 63 63 62 64 63 58 54 62 63 59 57 57
92 94 94 93 89 87 86 86 90 93 92 90 93 91 89 90 95 97 90 89 88 92 92 79 67 70 61 68 76 88 73 78 86 96 98 96 82 69 98 78 76 65 61 58 68 80 72 82 76 65 63 61 58 55
93 94 93 91 92 92 86 89 88 86 87 87 89 90 91 89 88 92 90 84 82 94 88 88 83 85 63 76 79 71 82 85 97 99 98 91 74 97 100 83 63 56 55 57 66 64 71 75 77 72 66 64 62 64
95 96 94 92 95 92 92 89 89 88 87 84 84 93 97 96 98 97 89 82 92 91 96 87 86 88 73 70 65 79 91 100 96 100 98 84 100 100 94 79 75 73 71 67 59 55 71 79 80 82 82 80 70 74
95 95 94 91 92 94 90 86 86 85 84 90 90 96 100 99 91 90 94 99 99 96 81 82 71 97 98 88 81 80 78 85 99 98 99 100 94 83 72 74 75 72 70 66 72 67 69 75 73 79 85 82 79 83
90 93 94 93 91 93 90 85 90 88 82 94 98 100 97 83 85 96 100 95 98 97 86 76 83 92 87 98 89 79 91 95 87 98 95 91 87 82 63 64 66 70 68 71 76 80 80 81 78 78 82 84 85 85
85 92 94 91 88 90 91 86 83 77 88 90 93 92 96 97 99 96 93 96 85 81 97 96 86 83 94 92 96 91 96 97 92 82 92 88 85 70 69 72 72 74 76 77 76 84 89 84 85 84 86 86 89 90
81 80 78 76 78 83 84 79 74 73 68 64 60 76 64 75 90 90 94 95 94 94 96 100 100 100 99 99 100 98 100 96 76 96 87 82 68 65 66 64 70 72 75 77 84 89 84 85 86 87 88 93 92 91
78 80 77 74 74 71 68 66 63 58 52 62 74 83 83 86 86 88 89 91 90 94 95 99 100 100 100 100 98 98 96 84 93 92 86 82 79 79 78 78 72 86 89 88 89 90 91 92 93 93 93 93 92 92
88 81 69 71 70 65 65 64 56 61 57 73 69 92 88 88 87 89 90 90 86 89 95 100 98 96 95 93 90 90 91 90 82 86 85 83 85 83 86 88 90 92 93 93 93 93 93 93 91 92 93 93 93 93
78 82 76 67 65 62 60 54 52 52 61 69 79 80 88 89 92 90 92 93 86 92 95 85 88 88 91 84 80 89 79 84 88 88 87 82 88 91 92 92 92 93 93 93 93 92 93 93 92 92 92 92 92 91
78 78 88 62 57 58 58 53 55 66 74 77 90 89 89 88 91 92 92 89 87 93 96 81 85 94 66 77 81 78 89 89 91 92 88 90 91 93 93 92 92 92 91 91 89 88 89 90 88 84 83 80 74 77
78 79 85 77 66 58 54 54 60 64 82 82 84 92 89 90 92 91 92 89 91 83 78 84 62 79 87 80 86 90 90 94 90 88 89 92 93 93 93 92 93 90 88 89 86 86 83 75 69 70 72 68 65 66
82 79 81 70 63 58 58 61 53 76 85 83 81 79 82 87 84 86 88 83 67 62 70 72 80 82 86 85 90 93 93 87 88 88 88 92 92 92 92 91 90 89 85 81 72 69 71 73 68 62 61 59 65 66
80 82 77 70 62 58 62 66 52 64 83 85 85 84 78 86 88 93 87 68 59 64 75 81 88 92 92 93 89 89 88 83 79 82 86 85 84 85 86 80 77 78 70 72 71 67 63 63 61 62 64 63 71 77
76 76 70 59 64 63 66 64 68 70 87 88 86 78 89 84 89 89 77 55 73 86 88 92 93 94 92 92 87 81 87 83 86 81 78 80 79 72 69 68 66 62 65 68 70 72 70 69 62 63 77 83 81 80
66 67 67 60 59 62 65 62 65 71 61 63 62 58 77 88 89 87 57 75 86 91 89 88 87 80 79 85 86 81 85 82 82 78 76 69 68 67 69 66 63 75 74 76 72 80 76 65 68 70 78 82 70 74
66 64 66 67 84 79 88 79 80 69 79 75 61 64 74 78 71 52 78 72 87 88 84 77 83 78 81 85 80 78 71 67 68 70 74 71 69 75 68 66 67 75 72 64 60 69 79 78 81 81 79 77 79 80
60 80 87 84 80 97 81 81 62 67 69 70 68 75 78 76 61 70 81 76 85 82 81 87 74 77 73 73 70 70 66 61 67 75 65 60 64 65 62 63 66 68 65 60 66 75 77 87 86 77 84 83 84 81
72 89 85 89 78 80 82 82 80 74 87 83 81 81 82 67 81 80 81 80 82 88 85 78 70 70 81 80 74 73 68 56 61 67 72 61 68 63 65 62 67 66 67 79 81 81 85 84 82 80 78 80 76 74
94 93 86 89 88 78 77 84 84 87 84 88 88 76 77 79 83 90 75 86 83 88 90 86 84 77 70 63 68 68 67 57 57 72 67 60 63 75 76 74 71 77 74 81 82 81 81 83 83 77 80 68 88 85
91 94 77 63 73 73 86 82 75 82 90 89 82 79 78 89 91 82 82 80 77 86 74 75 68 68 70 70 68 67 64 65 68 65 65 62 63 64 72 77 71 75 74 77 79 78 78 80 80 80 82 81 81 84
80 76 83 90 82 76 89 86 88 91 88 74 69 89 86 84 86 83 82 84 84 79 79 77 69 65 67 69 71 74 77 78 81 75 73 72 73 78 82 82 84 93 84 87 84 86 84 83 82 81 82 83 84 84
86 81 71 91 83 84 89 90 88 80 76 77 85 84 85 79 85 86 85 81 79 78 83 84 88 85 86 84 85 80 80 82 75 75 65 81 85 85 82 83 83 85 86 84 84 82 78 84 83 84 81 86 86 88
88 79 82 86 88 91 92 89 90 90 77 82 72 72 74 86 90 84 83 82 81 89 90 88 90 84 87 85 90 89 91 92 91 87 82 80 84 88 89 88 86 86 87 85 84 74 76 83 79 85 85 85 84 85
78 80 81 79 87 88 91 87 86 81 80 88 82 85 87 89 89 87 87 90 90 88 84 86 87 85 87 88 85 84 88 92 92 89 86 88 89 88 86 87 88 88 86 85 84 83 84 84 83 82 79 79 79 84
87 84 85 86 89 90 90 89 88 86 87 83 90 87 89 85 89 88 90 90 88 88 98 92 88 91 90 90 90 90 97 89 89 85 74 81 83 84 85 84 89 88 86 86 86 86 84 82 82 79 79 76 77 79
83 82 84 88 93 92 94 87 81 88 89 89 93 93 93 87 91 90 87 91 92 91 91 88 88 88 87 85 85 91 84 86 91 92 98 98 98 94 90 89 89 89 87 88 86 87 84 80 79 77 75 78 78 78

GFSWCAN_sfc_rhum_057.txt.gz
RH
75 78 79 81 82 85 89 90 90 90 80 76 75 76 76 76 77 80 70 68 88 90 57 47 43 52 62 64 86 76 97 98 100 99 73 62 66 49 44 53 50 54 66 68 60 67 61 25 26 38 56 42 39 39
80 82 82 84 84 86 91 90 90 91 89 78 76 77 77 77 77 77 79 49 75 91 60 55 48 40 49 48 65 85 74 88 61 74 58 67 71 67 47 56 53 60 44 50 42 44 35 29 44 46 44 45 45 46
84 84 86 86 88 90 90 87 89 85 90 81 77 77 77 78 79 81 63 59 88 98 90 72 64 46 46 49 47 95 72 79 71 51 82 70 73 58 70 48 49 39 52 48 61 33 42 30 39 43 43 46 42 41
90 91 91 90 89 89 91 91 86 88 88 82 80 80 80 81 82 83 93 72 86 81 92 65 47 60 43 46 53 62 63 61 73 80 85 83 77 44 61 46 47 34 36 37 41 33 30 27 44 51 46 44 44 42
91 92 92 92 92 92 89 91 86 88 87 84 83 82 83 84 84 88 93 85 73 64 83 71 51 54 48 48 52 68 76 83 96 93 98 90 58 58 54 53 53 30 35 48 48 52 52 43 44 48 49 50 48 51
90 93 93 93 91 89 90 92 87 86 85 84 85 85 85 86 87 98 100 95 78 74 84 94 62 57 57 56 58 67 82 93 96 97 91 65 56 64 83 64 37 46 46 51 56 59 58 52 47 52 55 53 52 51
93 93 94 93 93 91 90 93 90 89 87 87 88 89 89 90 95 98 87 74 81 87 98 97 88 56 59 62 73 80 81 94 96 98 99 87 70 68 76 70 73 54 50 48 54 56 60 66 67 61 58 54 54 51
94 95 94 92 88 89 87 91 92 92 90 91 90 91 90 90 85 92 85 84 81 96 96 98 84 75 56 78 90 78 97 93 94 84 83 68 63 73 100 74 52 48 48 50 53 48 53 61 68 66 62 61 66 66
96 95 95 94 93 93 88 86 86 93 92 92 93 94 95 96 98 92 87 86 87 86 94 81 83 90 60 64 64 75 78 99 82 83 80 78 86 100 95 72 68 67 63 57 50 47 56 66 64 60 60 62 68 71
96 95 94 94 93 92 90 90 86 84 93 94 90 97 100 96 90 92 96 99 98 95 81 80 59 96 68 75 77 76 82 76 87 92 97 99 95 78 64 68 68 64 59 60 66 65 67 69 67 66 67 66 66 69
93 89 93 93 92 91 89 87 88 92 86 95 99 100 97 85 91 98 100 100 99 92 68 69 69 91 87 93 80 68 79 72 71 82 98 98 92 79 58 59 60 65 64 68 73 77 76 77 78 71 76 79 75 74
82 81 93 92 90 89 88 88 84 88 94 92 94 92 89 95 97 95 92 86 72 67 78 83 73 75 80 82 95 71 80 80 81 80 90 89 82 64 65 67 67 69 75 78 80 78 78 80 83 80 81 86 87 86
77 79 86 82 91 91 85 83 79 83 69 70 78 77 69 84 99 99 92 84 93 97 91 100 97 93 94 88 100 97 99 92 72 98 93 81 64 59 62 63 73 72 74 76 80 78 78 82 85 88 87 91 90 90
77 77 77 76 80 79 74 71 67 54 52 56 78 92 94 92 85 88 94 98 95 97 98 100 100 100 100 100 100 100 99 90 90 92 92 81 78 76 79 76 71 82 82 82 84 85 88 88 92 92 91 92 90 90
72 69 69 68 71 67 64 62 59 44 49 70 68 90 86 85 85 89 93 92 84 84 94 98 100 98 100 99 98 97 99 93 85 90 89 82 82 80 85 84 85 86 86 86 85 87 90 90 90 91 91 91 91 92
76 70 60 69 64 60 58 54 46 45 56 69 81 85 91 91 93 93 95 96 86 92 95 100 99 97 94 90 86 93 88 88 90 90 88 82 88 89 90 90 90 88 86 87 88 88 89 90 91 92 90 90 90 87
78 72 60 60 59 57 58 47 49 60 71 79 88 87 89 89 94 94 92 89 89 98 100 93 90 95 68 80 81 77 89 90 90 91 86 87 88 90 91 91 91 90 89 88 89 90 90 90 87 77 78 74 68 71
70 73 73 58 57 52 47 47 56 60 83 85 84 93 87 88 92 92 91 89 92 82 76 85 60 82 86 79 84 88 90 91 90 88 88 90 91 93 92 90 90 88 87 88 88 87 78 69 63 63 64 59 56 57
74 67 76 73 56 51 55 55 48 72 86 84 83 80 83 89 84 86 86 74 60 55 60 63 78 80 86 86 90 91 92 87 88 87 86 91 90 91 92 91 90 88 85 78 65 62 63 64 58 52 51 49 55 57
78 76 72 67 56 52 59 63 48 60 79 81 77 78 76 84 85 90 82 62 54 57 72 78 86 91 88 91 87 87 87 83 79 86 89 87 83 85 87 79 75 73 64 63 61 56 53 53 52 54 57 56 64 68
65 61 66 51 50 52 57 59 69 78 78 72 71 70 84 76 83 83 77 54 69 79 83 88 92 94 93 92 89 87 89 86 85 77 76 78 75 67 64 61 58 54 56 59 62 62 62 60 54 56 71 77 75 73
51 65 57 50 55 54 59 55 73 70 65 67 63 60 79 88 84 81 56 70 81 90 89 89 88 84 82 83 80 75 79 76 77 72 71 66 66 63 63 60 57 68 66 67 63 72 67 55 61 63 73 75 63 69
63 58 61 61 82 77 79 77 78 68 74 68 60 71 78 80 67 47 76 68 84 84 80 74 78 71 78 78 72 68 64 61 63 65 66 62 61 67 60 58 60 68 65 54 50 60 70 71 70 74 71 70 73 75
60 82 94 90 76 92 77 76 53 57 61 64 65 75 74 72 54 64 78 73 81 80 78 82 67 70 66 66 61 59 56 54 59 66 56 52 54 54 51 53 57 59 56 50 57 66 67 76 82 67 73 73 74 73
68 89 88 86 74 76 78 80 75 68 78 71 75 75 78 65 75 73 74 78 79 85 80 70 67 67 77 74 67 64 56 49 54 59 62 51 58 53 54 51 57 55 58 74 75 75 77 75 74 74 70 73 69 64
88 87 82 82 81 73 70 81 79 78 76 80 80 70 77 76 76 82 71 85 83 88 91 84 77 68 59 53 58 59 56 47 48 63 56 51 54 68 68 66 64 71 63 73 75 74 71 71 73 65 71 63 82 77
84 87 72 57 67 66 79 77 68 76 79 81 76 76 76 80 84 79 76 79 78 81 69 68 64 62 62 61 58 56 55 58 61 55 53 52 54 57 68 74 67 70 66 69 73 74 74 72 72 71 73 72 71 74
72 71 83 84 78 69 81 78 79 82 80 63 62 81 80 76 82 84 79 81 78 72 72 68 61 59 62 63 66 68 71 71 75 66 64 63 63 68 71 74 74 77 75 78 77 76 75 76 75 73 73 76 75 74
79 72 65 84 75 77 82 81 80 74 67 71 78 76 80 73 82 84 82 74 73 74 80 81 82 79 79 74 74 74 73 75 65 59 46 72 76 81 72 73 74 74 75 75 76 74 72 76 76 78 74 77 76 77
81 71 75 77 80 85 88 83 86 81 66 71 69 72 75 85 90 82 78 77 77 84 84 82 81 78 80 78 82 79 82 81 81 81 79 78 82 81 78 78 77 76 77 76 75 66 72 75 72 80 81 76 76 76
68 75 74 74 83 87 90 86 82 82 83 86 78 82 84 87 86 82 81 82 83 82 82 84 83 80 79 78 76 77 84 85 83 82 76 78 78 78 79 78 79 79 77 76 77 76 77 78 75 74 73 72 71 76
78 75 77 80 88 82 88 84 82 86 82 84 87 82 83 80 84 83 85 82 81 83 94 79 81 86 81 80 81 86 78 80 78 77 74 77 79 78 78 76 79 78 78 78 77 78 76 76 77 74 74 71 70 72
78 77 76 80 87 85 85 80 70 81 78 80 85 83 86 81 84 86 82 86 90 87 84 85 84 82 80 76 77 80 70 82 87 88 89 91 94 90 86 78 78 78 77 79 78 77 75 74 74 71 70 72 73 73

GFSWCAN_sfc_rhum_060.txt.gz
RH
70 73 76 78 79 80 80 81 82 85 90 88 83 77 76 77 76 82 78 83 95 96 60 46 41 55 56 79 93 74 84 82 97 97 79 63 70 60 58 59 66 58 72 76 65 67 65 21 24 35 64 59 52 49
76 80 81 82 82 82 83 84 84 85 93 90 90 81 76 77 78 77 86 77 84 97 57 50 45 39 39 50 88 93 66 98 76 86 64 68 83 78 56 65 75 93 47 55 46 47 39 32 51 47 46 56 54 48
82 82 82 83 88 88 88 88 87 90 90 90 92 84 77 77 77 77 63 69 89 96 77 65 57 43 37 43 47 90 66 61 80 84 96 88 83 65 71 54 63 81 57 47 58 41 28 52 48 44 44 47 43 43
81 82 84 87 89 91 90 91 90 92 90 90 91 84 78 78 76 74 80 62 86 88 86 62 36 46 39 40 44 51 60 64 86 92 99 94 83 68 82 58 69 75 87 56 54 57 72 77 65 48 45 46 48 46
83 86 89 90 92 93 92 92 91 93 87 86 89 82 78 78 76 78 87 74 77 64 79 74 60 47 33 49 48 51 66 70 92 98 99 88 66 72 66 58 56 46 82 77 81 70 81 83 54 48 52 53 52 52
88 88 89 94 91 92 91 90 92 88 88 89 84 80 78 78 80 90 99 86 74 80 96 84 67 75 58 54 56 56 67 88 95 99 99 68 50 68 78 81 80 68 48 55 64 52 56 57 56 55 56 55 52 53
90 92 94 94 94 92 91 91 90 89 89 87 83 81 81 82 91 98 92 77 77 83 99 86 62 54 58 60 71 76 81 96 97 98 98 79 73 68 86 76 90 64 48 52 48 50 57 61 70 61 59 57 56 56
93 94 93 94 93 93 90 93 90 88 87 86 85 84 84 85 86 97 87 78 72 94 97 96 90 83 64 87 99 87 97 96 98 98 95 94 69 76 95 81 60 56 50 54 52 48 62 58 55 55 54 57 64 65
96 96 96 94 94 94 90 93 91 90 87 86 86 88 97 97 99 95 87 80 79 83 97 96 95 91 59 71 76 90 90 100 95 99 83 72 95 96 95 78 72 66 63 60 53 53 52 62 58 57 59 60 67 69
96 94 94 96 94 93 91 92 92 92 90 89 91 98 100 98 88 87 97 100 98 90 89 88 68 89 67 80 82 77 79 78 85 82 81 90 95 78 65 67 67 65 62 64 69 74 69 71 66 68 70 68 67 71
88 92 94 95 94 92 88 90 94 94 91 94 98 100 98 89 94 98 100 100 100 99 73 72 75 84 72 91 82 82 89 82 78 89 91 94 90 84 59 63 63 67 66 73 76 78 78 82 84 74 77 76 76 77
89 93 94 94 91 90 92 92 88 90 88 91 95 94 95 96 99 100 99 97 83 70 73 83 80 79 82 76 86 80 78 79 75 85 91 91 89 71 65 69 72 72 75 80 76 75 79 79 75 75 77 81 87 89
90 94 92 91 91 90 88 86 89 86 74 72 84 98 98 95 100 97 90 84 93 92 89 98 96 95 83 88 94 94 95 85 73 90 91 86 74 70 74 68 74 71 72 73 76 76 77 81 82 80 87 93 91 93
90 90 90 93 94 92 89 92 91 80 62 65 80 89 94 87 88 92 94 97 98 100 100 98 100 99 100 98 98 99 99 93 91 91 93 90 85 83 84 77 74 88 87 85 86 88 91 91 94 92 93 94 92 93
77 84 76 72 75 75 70 66 63 54 54 70 68 88 84 87 88 92 97 94 93 92 100 100 97 92 98 96 90 92 92 92 85 92 91 90 86 85 88 87 89 91 94 93 91 93 94 92 92 94 95 94 90 92
74 73 72 69 66 61 61 54 48 48 58 70 82 85 90 90 94 94 98 96 92 96 90 90 97 92 92 88 93 92 93 92 94 92 88 83 89 92 93 92 93 92 92 93 93 90 91 93 93 92 91 90 89 87
72 58 65 65 65 62 61 48 52 59 69 75 88 91 92 87 94 95 94 92 91 98 100 93 92 94 92 86 85 82 92 93 93 93 87 88 88 92 93 93 94 94 93 92 91 89 90 89 88 77 80 75 68 74
68 58 65 64 52 56 47 48 56 60 80 85 85 92 86 92 95 94 94 92 93 84 79 92 77 83 91 90 89 93 93 95 92 89 90 91 92 93 93 92 93 92 90 90 84 82 79 74 64 65 64 60 58 58
71 66 76 67 58 51 56 55 49 73 87 84 83 81 85 90 85 85 86 77 63 60 67 66 75 83 89 90 93 94 93 88 90 91 90 93 92 92 93 92 92 91 88 79 65 63 63 65 59 53 52 52 61 65
76 74 67 64 62 56 60 61 48 64 84 80 78 80 79 87 88 90 82 64 57 62 75 80 89 94 92 93 86 87 86 84 83 88 90 91 92 94 92 82 76 73 64 63 60 63 55 56 55 59 64 68 74 78
62 57 63 51 53 55 58 61 68 64 67 77 80 72 87 77 84 85 79 56 70 79 84 88 92 93 87 90 89 87 91 88 91 84 82 84 76 69 67 63 58 56 60 63 64 63 67 62 56 61 78 83 82 78
49 67 58 55 66 62 73 71 67 65 63 73 68 63 79 87 85 80 58 73 82 92 91 89 92 87 84 85 78 73 77 76 78 74 74 71 72 70 68 64 61 71 68 70 67 76 71 64 76 68 78 79 75 80
64 59 65 68 81 75 83 84 91 88 76 72 71 76 84 81 70 51 83 80 90 90 80 74 80 73 78 76 72 69 65 63 67 68 68 65 63 70 62 59 62 70 67 56 52 64 77 80 69 77 71 73 76 80
63 84 94 84 72 86 77 76 53 60 74 72 67 82 81 76 54 66 80 77 89 81 79 86 70 75 69 66 62 60 58 56 60 65 57 53 56 54 52 56 60 60 59 53 62 70 70 78 85 75 75 76 76 81
70 88 85 85 76 75 76 76 69 64 77 68 74 82 78 77 74 74 78 82 85 86 80 79 85 74 82 77 68 62 62 50 57 59 61 52 58 54 55 53 59 55 62 83 78 76 77 77 75 76 72 75 79 78
88 84 80 77 76 72 69 80 76 74 73 78 77 69 76 74 76 84 74 88 84 88 90 87 80 70 61 55 60 60 55 48 52 64 56 52 56 71 69 66 73 81 67 77 82 79 74 70 72 71 76 82 87 80
83 84 69 56 74 66 78 75 66 73 76 79 76 76 72 78 83 83 89 76 81 85 73 77 70 66 65 61 58 58 57 60 63 56 54 55 59 63 78 86 84 82 69 71 76 78 80 76 75 73 76 76 78 82
71 73 86 81 78 70 80 76 77 79 76 60 62 79 78 77 86 88 83 84 82 72 72 70 65 62 65 66 68 70 73 75 76 69 67 66 64 70 74 78 73 76 76 78 78 78 77 78 79 78 79 80 83 79
79 69 67 86 74 76 80 80 80 71 68 74 76 77 78 77 81 86 80 75 74 76 81 81 81 79 77 74 78 77 76 78 72 69 65 76 90 87 73 74 75 76 76 77 83 80 71 78 79 83 80 82 81 81
78 67 73 76 80 84 89 86 86 79 68 74 74 78 82 90 92 80 84 85 86 90 88 86 86 80 82 81 82 83 82 82 84 86 86 89 89 79 78 80 78 78 77 78 78 72 80 79 78 81 90 89 81 82
65 71 72 72 83 86 86 88 89 87 85 87 82 84 84 87 84 81 83 81 82 82 82 83 82 79 78 79 82 81 93 87 84 82 78 78 78 82 82 79 80 80 78 78 79 79 79 80 79 80 77 78 80 81
74 72 76 80 88 89 93 86 85 89 88 85 88 85 86 83 86 86 84 93 88 85 90 84 84 87 80 81 83 84 83 81 80 80 77 81 82 78 76 75 77 78 79 80 80 79 79 78 80 80 80 78 79 81
81 81 81 81 85 76 82 83 71 83 77 79 83 82 88 85 88 89 79 83 93 88 88 86 84 82 80 79 78 80 78 85 89 92 92 95 93 92 89 82 81 80 78 80 79 78 78 76 79 79 80 82 81 81

GFSWCAN_sfc_rhum_063.txt.gz
RH
64 73 73 74 76 78 79 80 81 82 82 82 80 81 80 78 75 86 90 90 98 98 80 64 68 77 75 84 99 98 97 95 96 93 97 88 91 76 72 63 90 85 80 91 90 90 83 35 52 58 80 71 61 58
69 73 75 78 80 81 83 82 84 84 84 83 83 88 88 82 78 79 93 86 90 98 88 76 67 66 66 57 86 94 100 100 90 92 90 93 93 92 81 89 87 98 85 82 70 71 64 64 69 71 66 65 62 61
72 77 79 82 82 82 82 83 86 89 88 87 87 86 89 85 78 78 85 92 96 97 93 85 77 52 45 55 59 96 90 82 94 95 100 98 99 99 97 79 82 85 80 91 75 80 80 90 72 55 54 59 57 56
78 81 82 82 82 84 85 87 90 90 91 92 92 89 91 85 78 74 90 86 92 98 99 84 52 63 53 50 59 68 73 76 88 95 100 100 100 88 96 86 87 90 93 93 81 88 91 87 84 72 61 55 56 56
81 81 82 84 85 87 90 91 93 92 92 92 88 85 90 82 74 79 94 88 87 93 98 98 77 60 59 60 60 64 72 82 93 99 100 99 97 92 89 77 96 87 100 100 99 96 94 96 80 74 70 59 60 61
81 82 85 87 88 90 92 92 92 89 93 89 85 89 83 79 76 96 100 93 90 94 96 98 78 74 73 63 71 71 77 86 95 100 99 97 80 80 94 97 94 72 69 70 93 89 86 79 72 62 60 62 63 66
84 85 88 90 92 94 94 93 92 92 89 87 89 84 81 79 90 94 92 95 77 92 100 98 91 82 64 71 87 86 83 96 96 98 98 93 90 86 98 98 71 61 60 56 58 68 74 67 70 62 61 61 64 64
89 89 89 93 92 92 95 93 92 90 89 89 85 81 80 79 80 91 93 88 78 95 99 99 94 94 80 98 100 95 98 98 99 99 97 97 92 93 99 82 68 62 58 64 63 65 65 60 61 62 62 63 71 76
94 94 95 95 94 93 95 94 91 89 88 84 81 80 88 93 97 95 80 86 88 90 98 98 98 98 82 90 96 97 98 100 98 99 98 92 98 98 96 82 77 73 72 71 63 64 67 68 69 69 69 73 79 80
95 94 94 94 94 94 94 92 92 87 86 83 91 98 100 98 83 84 96 100 100 97 97 100 83 95 92 95 99 99 99 100 99 96 96 99 98 83 75 78 78 76 76 75 80 83 80 82 81 83 86 81 82 86
88 93 94 94 95 94 94 92 89 86 85 95 99 100 97 80 95 99 99 99 95 95 96 94 89 95 86 95 98 89 97 96 96 97 93 98 95 94 73 77 76 82 83 89 88 90 88 86 86 84 85 83 85 83
92 94 93 95 92 93 92 93 90 91 95 93 96 94 97 98 100 99 97 95 98 92 95 96 94 93 95 88 97 97 97 93 96 98 98 98 96 90 83 85 86 86 86 88 86 88 88 84 86 86 87 90 93 93
94 94 96 93 92 93 93 91 83 87 78 82 91 98 99 98 99 98 96 97 99 98 99 99 100 100 94 97 98 99 99 98 95 99 97 97 94 90 82 84 88 87 85 85 90 90 89 92 88 89 94 95 93 96
95 95 93 92 91 91 90 91 82 86 79 90 94 96 98 98 98 98 98 99 100 100 99 99 99 99 100 91 96 95 99 98 97 98 98 97 96 92 90 86 86 97 94 94 95 94 94 94 96 96 96 95 93 96
91 91 88 90 93 92 90 88 77 70 79 85 84 96 96 98 97 98 99 98 99 100 99 98 98 97 94 92 89 94 94 98 97 99 98 98 96 95 96 95 96 96 96 96 95 96 97 96 95 96 97 95 93 93
76 77 89 82 78 68 69 60 65 69 80 85 92 96 98 97 98 98 98 99 98 99 99 99 93 90 94 96 97 95 97 98 99 99 97 95 97 97 97 96 96 96 96 95 95 96 96 95 95 97 95 93 94 94
71 77 72 72 66 64 61 69 73 73 85 87 98 97 98 98 99 99 98 99 99 99 99 99 96 96 98 96 96 98 98 98 97 97 97 95 95 97 96 96 96 96 95 95 94 93 94 92 92 90 90 90 80 84
69 73 72 71 73 64 66 70 80 79 95 97 97 99 98 98 98 99 99 96 99 95 93 99 94 93 99 97 99 98 97 97 96 96 96 96 96 97 96 96 96 95 95 96 95 95 93 85 77 82 80 75 75 76
64 70 70 67 63 71 74 76 70 90 97 96 97 97 98 99 95 92 95 93 84 77 90 91 92 99 99 98 96 97 96 93 96 96 96 96 96 96 96 96 96 96 95 89 76 79 81 80 82 83 85 81 89 95
81 77 65 61 63 74 72 84 72 86 97 97 94 96 98 98 97 94 87 76 68 80 91 95 98 98 98 98 96 94 93 89 90 94 96 96 96 96 96 93 91 88 85 84 82 83 78 82 80 81 88 89 95 98
64 69 68 64 72 76 82 84 84 87 90 95 92 93 97 88 93 95 92 72 87 97 98 98 98 97 97 97 96 95 94 90 95 91 93 96 96 88 90 91 86 84 90 95 93 92 91 95 96 94 96 100 99 97
70 69 78 71 80 81 85 82 83 81 87 88 92 87 96 97 97 95 80 89 98 97 98 97 96 93 92 94 94 87 88 83 85 86 89 91 96 92 90 94 90 94 92 96 95 96 97 95 96 97 97 99 95 94
74 75 88 83 84 87 96 92 95 85 92 91 90 88 94 96 90 79 96 92 98 97 92 89 90 82 88 87 83 80 78 78 87 91 91 92 93 93 90 88 89 96 91 90 90 95 95 95 96 97 95 95 97 94
74 92 94 92 88 98 98 97 81 83 86 92 86 93 93 93 79 90 96 96 98 96 89 90 85 92 85 80 81 86 88 84 87 91 91 82 84 86 84 88 90 93 94 95 94 97 97 94 92 98 93 97 98 98
80 88 92 93 90 89 90 90 90 86 89 85 90 93 93 96 93 94 95 99 98 98 98 91 95 90 93 96 95 89 80 76 85 85 86 89 93 88 87 85 88 89 92 96 98 97 95 94 97 94 92 98 92 96
95 90 91 95 93 88 91 93 88 90 92 92 90 91 97 94 92 99 97 97 97 97 98 96 94 93 86 78 87 89 88 74 71 85 83 78 88 99 98 96 97 98 96 99 98 99 98 93 95 85 94 98 89 92
94 94 86 78 90 90 94 91 87 92 92 94 95 95 90 95 100 99 96 97 96 96 91 93 82 82 83 83 81 86 88 82 83 80 86 83 86 90 96 99 100 99 98 96 99 100 100 100 100 97 97 97 98 97
87 90 98 94 90 85 92 93 95 97 94 90 89 97 98 97 99 98 97 94 89 86 86 85 83 82 86 91 94 96 96 95 91 89 91 94 97 98 96 97 97 96 97 94 95 99 98 100 100 100 100 100 100 100
94 90 84 91 88 91 96 97 98 95 93 96 95 98 99 98 97 95 93 90 87 88 92 94 97 95 93 92 93 94 96 98 90 86 93 99 100 98 97 98 98 97 98 99 100 98 93 93 96 97 97 99 99 100
90 90 89 91 94 97 98 96 98 96 93 96 93 90 92 95 96 96 96 94 93 94 97 97 97 96 98 97 100 100 98 98 100 100 100 100 99 100 100 100 100 100 99 98 99 97 96 95 99 96 100 100 100 98
88 91 88 90 97 96 94 93 89 86 83 86 86 87 97 98 96 93 94 96 97 96 94 97 96 97 96 98 99 99 100 100 97 97 98 100 100 100 99 99 98 98 99 98 99 99 96 97 99 99 98 95 94 97
92 89 92 96 98 96 97 95 95 93 94 91 97 96 99 97 99 98 98 96 97 97 97 93 97 100 100 100 100 97 97 100 100 100 100 100 100 100 100 99 99 99 96 97 99 100 98 98 99 99 100 99 96 96
86 84 85 93 98 97 97 95 93 96 95 96 98 97 98 97 100 99 98 96 95 94 96 98 99 98 96 97 98 98 99 100 100 100 100 100 100 100 100 100 99 98 99 100 100 100 99 98 99 97 96 97 97 98